Darstellungsparameter: Aktuell verwendete Einstellungen:
Skalierung der Graphiken ... ?
xyx+y,   Skalierungsfaktor:      Skalierung: Modus: x, Faktor: 1
Darstellungszeitraum ... ?
Vom - - bis: - -   Zeitraum: 23.05.2003 - 02.06.2003
Min/Max/Avg-Anzeige ... ?
Zeige MMA aktuell
Zeige MMA Monat
Zeige MMA alles
Zeige --A aktuell
Zeige --A Monat
Zeige --A alles
Keine MMA-Anzeige
MMA:
Average (ber die Originaldaten)
MMA-Basis: 23.05.2003 - 02.06.2003
Quicknavigation für Darstellung... ?
Tage:      1T, 2T, 3T, 5T -1T -2T -3T -5T +1T +2T +3T +5T
Wochen: 1W, 2W, 3W -1W -2W -3W +1W +2W +3W
Monate: 1M, 3M, 6M -1M -3M -6M +1M +3M +6M
Jahre:    1J, 3J, 5J, 10J -1J -3J -5J -10J +1J +3J +5J +10J
Nutze für die Darstellung ... ?
Originaldaten oder Mittelwerte auf ...
Stundenbasis Tagesbasis Wochenbasis
Monatsbasis Jahresbasis      Datenbasis: Original-Daten
Darstellen als:
Statistik (Auto) Statistik J:M      Darstellung:
Zur Graphik,    zurück zur Übersicht aller Sensoren.
 
Tabellarische Datenbersicht: ?
 
Sensor: Nr:Datum:Temp:Abs-Feuchte:Windchill:Wind:
Aussen-T/F 1 23-05-2003 00:09:02 14.5 C 10.82 g/m*3 14.5 C 0 km/h
2 23-05-2003 00:19:02 14.7 C 10.95 g/m*3 14.7 C 0 km/h
3 23-05-2003 00:29:02 14.6 C 10.89 g/m*3 14.6 C 0 km/h
4 23-05-2003 00:39:02 14.5 C 10.82 g/m*3 14.5 C 0 km/h
5 23-05-2003 00:49:02 14.5 C 10.82 g/m*3 14.5 C 0 km/h
6 23-05-2003 00:59:02 14.4 C 10.88 g/m*3 14.4 C 0 km/h
7 23-05-2003 01:09:02 14.4 C 10.88 g/m*3 14.4 C 0 km/h
8 23-05-2003 01:29:02 14.6 C 11.01 g/m*3 14.6 C 0 km/h
9 23-05-2003 01:39:02 14.6 C 10.89 g/m*3 14.6 C 0 km/h
10 23-05-2003 01:49:02 14.6 C 10.89 g/m*3 14.6 C 0 km/h
11 23-05-2003 01:59:02 14.6 C 10.89 g/m*3 14.6 C 0 km/h
12 23-05-2003 02:09:02 14.6 C 10.89 g/m*3 14.6 C 0 km/h
13 23-05-2003 02:19:02 14.5 C 10.82 g/m*3 14.5 C 0 km/h
14 23-05-2003 02:29:02 14.5 C 10.94 g/m*3 14.5 C 0 km/h
15 23-05-2003 02:39:02 14.5 C 10.94 g/m*3 14.5 C 0 km/h
16 23-05-2003 02:49:02 14.5 C 10.94 g/m*3 14.5 C 0 km/h
17 23-05-2003 02:59:02 14.5 C 10.94 g/m*3 14.5 C 0 km/h
18 23-05-2003 03:09:02 14.8 C 11.02 g/m*3 14.8 C 0 km/h
19 23-05-2003 03:19:02 15.1 C 10.84 g/m*3 15.1 C 0 km/h
20 23-05-2003 03:29:02 15.1 C 10.84 g/m*3 15.1 C 0 km/h
21 23-05-2003 03:39:02 15.2 C 10.9 g/m*3 15.2 C 0 km/h
22 23-05-2003 03:49:02 15.4 C 11.04 g/m*3 15.4 C 0 km/h
23 23-05-2003 03:59:02 15.3 C 10.97 g/m*3 15.3 C 0 km/h
24 23-05-2003 04:09:02 15.5 C 11.1 g/m*3 15.5 C 0 km/h
25 23-05-2003 04:19:02 15.6 C 11.04 g/m*3 15.6 C 0 km/h
Sensor: Nr:Datum:Temp:Abs-Feuchte:Windchill:Wind:
Aussen-T/F 26 23-05-2003 04:29:02 15.5 C 10.97 g/m*3 15.5 C 0 km/h
27 23-05-2003 04:39:02 15.5 C 10.97 g/m*3 15.5 C 0 km/h
28 23-05-2003 04:49:02 15.5 C 10.97 g/m*3 15.5 C 0 km/h
29 23-05-2003 04:59:02 15.4 C 11.04 g/m*3 15.4 C 0 km/h
30 23-05-2003 05:09:02 15.6 C 11.04 g/m*3 15.6 C 0 km/h
31 23-05-2003 05:19:02 15.6 C 10.91 g/m*3 15.6 C 0 km/h
32 23-05-2003 05:29:02 15.7 C 10.84 g/m*3 15.7 C 0 km/h
33 23-05-2003 05:39:02 15.6 C 10.64 g/m*3 15.6 C 0 km/h
34 23-05-2003 05:49:02 15.6 C 10.64 g/m*3 15.6 C 0 km/h
35 23-05-2003 05:59:02 15.5 C 10.57 g/m*3 15.5 C 0 km/h
36 23-05-2003 06:09:02 15.6 C 10.64 g/m*3 15.6 C 0 km/h
37 23-05-2003 06:19:02 15.6 C 10.51 g/m*3 15.6 C 0 km/h
38 23-05-2003 06:29:02 15.6 C 10.51 g/m*3 15.6 C 0 km/h
39 23-05-2003 06:39:02 15.6 C 10.51 g/m*3 15.6 C 0 km/h
40 23-05-2003 06:49:02 15.8 C 10.5 g/m*3 15.8 C 0 km/h
41 23-05-2003 06:59:02 15.8 C 10.5 g/m*3 15.8 C 0 km/h
42 23-05-2003 07:09:02 15.9 C 10.43 g/m*3 15.9 C 0 km/h
43 23-05-2003 07:19:02 16 C 10.35 g/m*3 16 C 0 km/h
44 23-05-2003 07:29:02 16 C 10.35 g/m*3 16 C 0 km/h
45 23-05-2003 07:39:01 15.9 C 10.43 g/m*3 15.9 C 0 km/h
46 23-05-2003 07:49:01 16 C 10.35 g/m*3 16 C 0 km/h
47 23-05-2003 07:59:01 16 C 10.08 g/m*3 16 C 0 km/h
48 23-05-2003 08:09:08 16.2 C 9.93 g/m*3 16.2 C 0 km/h
49 23-05-2003 08:19:08 16.4 C 9.91 g/m*3 16.4 C 0 km/h
50 23-05-2003 08:29:08 16.3 C 9.85 g/m*3 16.3 C 0 km/h
Sensor: Nr:Datum:Temp:Abs-Feuchte:Windchill:Wind:
Aussen-T/F 51 23-05-2003 08:39:01 16.4 C 9.77 g/m*3 16.4 C 0 km/h
52 23-05-2003 08:49:01 16.6 C 9.89 g/m*3 16.6 C 0 km/h
53 23-05-2003 08:59:01 16.8 C 9.72 g/m*3 16.8 C 0 km/h
54 23-05-2003 09:09:01 17.1 C 9.46 g/m*3 17.1 C 0 km/h
55 23-05-2003 09:19:01 17.3 C 8.99 g/m*3 17.3 C 0 km/h
56 23-05-2003 09:29:01 17.5 C 9.09 g/m*3 17.5 C 0 km/h
57 23-05-2003 09:39:01 17.7 C 9.2 g/m*3 17.7 C 0 km/h
58 23-05-2003 09:49:01 17.8 C 9.11 g/m*3 17.8 C 0 km/h
59 23-05-2003 09:59:01 18.1 C 9.27 g/m*3 18.1 C 0 km/h
60 23-05-2003 10:09:01 18.1 C 9.27 g/m*3 18.1 C 0 km/h
61 23-05-2003 10:19:01 18.2 C 9.48 g/m*3 18.2 C 0 km/h
62 23-05-2003 10:29:01 18.6 C 9.55 g/m*3 18.6 C 0 km/h
63 23-05-2003 10:39:01 18.9 C 8.91 g/m*3 18.9 C 0 km/h
64 23-05-2003 10:49:01 18.8 C 8.54 g/m*3 18.8 C 0 km/h
65 23-05-2003 10:59:01 18.8 C 8.05 g/m*3 18.8 C 0 km/h
66 23-05-2003 11:09:02 18.8 C 8.05 g/m*3 18.8 C 0 km/h
67 23-05-2003 11:19:02 19.1 C 7.7 g/m*3 19.1 C 0 km/h
68 23-05-2003 11:29:02 19.7 C 7.81 g/m*3 19.7 C 0 km/h
69 23-05-2003 11:39:01 19.5 C 7.55 g/m*3 19.5 C 0 km/h
70 23-05-2003 11:49:01 19.9 C 7.56 g/m*3 19.9 C 0 km/h
71 23-05-2003 11:59:01 20.5 C 7.47 g/m*3 20.5 C 0 km/h
72 23-05-2003 12:09:02 20.5 C 7.3 g/m*3 20.5 C 0 km/h
73 23-05-2003 12:19:02 20.5 C 7.47 g/m*3 20.5 C 0 km/h
74 23-05-2003 12:29:02 20.3 C 7.21 g/m*3 20.3 C 0 km/h
75 23-05-2003 12:39:00 20.7 C 7.38 g/m*3 20.7 C 0 km/h
Sensor: Nr:Datum:Temp:Abs-Feuchte:Windchill:Wind:
Aussen-T/F 76 23-05-2003 12:49:00 20.8 C 7.24 g/m*3 20.8 C 0 km/h
77 23-05-2003 12:59:00 21.3 C 7.27 g/m*3 21.3 C 0 km/h
78 23-05-2003 13:09:02 21.7 C 7.25 g/m*3 21.7 C 0 km/h
79 23-05-2003 13:19:02 22 C 6.99 g/m*3 22 C 0 km/h
80 23-05-2003 13:29:02 22.2 C 6.87 g/m*3 22.2 C 0 km/h
81 23-05-2003 13:39:01 22.2 C 6.48 g/m*3 22.2 C 0 km/h
82 23-05-2003 13:49:01 22.4 C 6.75 g/m*3 22.4 C 0 km/h
83 23-05-2003 13:59:01 22.3 C 6.71 g/m*3 22.3 C 0 km/h
84 23-05-2003 14:09:00 22.8 C 6.91 g/m*3 22.8 C 0 km/h
85 23-05-2003 14:19:00 22.4 C 6.55 g/m*3 22.4 C 0 km/h
86 23-05-2003 14:29:00 22.5 C 6.59 g/m*3 22.5 C 0 km/h
87 23-05-2003 14:39:00 22.8 C 6.71 g/m*3 22.8 C 0 km/h
88 23-05-2003 14:49:00 22.4 C 6.16 g/m*3 22.4 C 0 km/h
89 23-05-2003 14:59:00 22.9 C 6.74 g/m*3 22.9 C 0 km/h
90 23-05-2003 15:09:00 23.3 C 6.48 g/m*3 23.3 C 0 km/h
91 23-05-2003 15:19:00 23.8 C 6.67 g/m*3 23.8 C 0 km/h
92 23-05-2003 15:29:00 24.3 C 6.86 g/m*3 24.3 C 0 km/h
93 23-05-2003 15:39:01 23.8 C 6.67 g/m*3 23.8 C 0 km/h
94 23-05-2003 15:49:01 24.1 C 6.56 g/m*3 24.1 C 0 km/h
95 23-05-2003 15:59:01 23.8 C 6.88 g/m*3 23.8 C 0 km/h
96 23-05-2003 16:09:01 24.1 C 6.78 g/m*3 24.1 C 0 km/h
97 23-05-2003 16:19:01 24.1 C 7 g/m*3 24.1 C 0 km/h
98 23-05-2003 16:29:01 24 C 6.53 g/m*3 24 C 0 km/h
99 23-05-2003 16:39:01 23.6 C 6.59 g/m*3 23.6 C 0 km/h
100 23-05-2003 16:49:01 23.4 C 6.52 g/m*3 23.4 C 0 km/h
Sensor: Nr:Datum:Temp:Abs-Feuchte:Windchill:Wind:
Aussen-T/F 101 23-05-2003 16:59:01 23.5 C 7.4 g/m*3 23.5 C 0 km/h
102 23-05-2003 17:09:01 24.4 C 6.9 g/m*3 24.4 C 0 km/h
103 23-05-2003 17:19:01 24.6 C 6.75 g/m*3 24.6 C 0 km/h
104 23-05-2003 17:29:01 25.2 C 6.75 g/m*3 25.2 C 0 km/h
105 23-05-2003 17:39:01 25.3 C 7.02 g/m*3 25.3 C 0 km/h
106 23-05-2003 17:49:01 25.6 C 6.19 g/m*3 25.6 C 0 km/h
107 23-05-2003 17:59:01 25.3 C 6.09 g/m*3 25.3 C 0 km/h
108 23-05-2003 18:09:01 25.7 C 6.22 g/m*3 25.7 C 0 km/h
109 23-05-2003 18:19:01 24.3 C 5.75 g/m*3 24.3 C 0 km/h
110 23-05-2003 18:29:01 24.2 C 5.5 g/m*3 24.2 C 0 km/h
111 23-05-2003 18:39:02 24.1 C 5.47 g/m*3 24.1 C 0 km/h
112 23-05-2003 18:49:02 24.1 C 5.47 g/m*3 24.1 C 0 km/h
113 23-05-2003 18:59:02 24.8 C 5.69 g/m*3 24.8 C 0 km/h
114 23-05-2003 19:09:02 24.7 C 5.66 g/m*3 24.7 C 0 km/h
115 23-05-2003 19:19:02 24.9 C 5.72 g/m*3 24.9 C 0 km/h
116 23-05-2003 19:29:02 25.5 C 5.92 g/m*3 25.5 C 0 km/h
117 23-05-2003 19:39:01 24.5 C 5.82 g/m*3 24.5 C 0 km/h
118 23-05-2003 19:49:01 24.6 C 6.53 g/m*3 24.6 C 0 km/h
119 23-05-2003 19:59:01 24.2 C 7.04 g/m*3 24.2 C 0 km/h
120 23-05-2003 20:09:03 23.3 C 6.9 g/m*3 23.3 C 0 km/h
121 23-05-2003 20:19:03 22.9 C 7.36 g/m*3 22.9 C 0 km/h
122 23-05-2003 20:29:03 22.5 C 7.19 g/m*3 22.5 C 0 km/h
123 23-05-2003 20:39:01 21.9 C 7.53 g/m*3 21.9 C 0 km/h
124 23-05-2003 20:49:01 21.2 C 7.6 g/m*3 21.2 C 0 km/h
125 23-05-2003 20:59:01 20.4 C 7.61 g/m*3 20.4 C 0 km/h
Sensor: Nr:Datum:Temp:Abs-Feuchte:Windchill:Wind:
Aussen-T/F 126 23-05-2003 21:09:02 19.7 C 7.64 g/m*3 19.7 C 0 km/h
127 23-05-2003 21:19:02 19.1 C 7.7 g/m*3 19.1 C 0 km/h
128 23-05-2003 21:29:02 18.6 C 8.12 g/m*3 18.6 C 0 km/h
129 23-05-2003 21:39:01 18.2 C 7.46 g/m*3 18.2 C 0 km/h
130 23-05-2003 21:49:01 17.9 C 7.79 g/m*3 17.9 C 0 km/h
131 23-05-2003 21:59:01 17.6 C 7.8 g/m*3 17.6 C 0 km/h
132 23-05-2003 22:09:01 17.3 C 7.51 g/m*3 17.3 C 0 km/h
133 23-05-2003 22:19:01 17 C 7.67 g/m*3 17 C 0 km/h
134 23-05-2003 22:29:01 17 C 7.67 g/m*3 17 C 0 km/h
135 23-05-2003 22:39:00 16.4 C 7.96 g/m*3 16.4 C 0 km/h
136 23-05-2003 22:49:00 16.8 C 8.01 g/m*3 16.8 C 0 km/h
137 23-05-2003 22:59:00 16.8 C 7.86 g/m*3 16.8 C 0 km/h
138 23-05-2003 23:09:00 16.6 C 8.33 g/m*3 16.6 C 0 km/h
139 23-05-2003 23:19:00 16.3 C 8.46 g/m*3 16.3 C 0 km/h
140 23-05-2003 23:29:00 16.2 C 8.27 g/m*3 16.2 C 0 km/h
141 23-05-2003 23:39:01 16.1 C 8.09 g/m*3 16.1 C 0 km/h
142 23-05-2003 23:49:01 16 C 8.45 g/m*3 16 C 0 km/h
143 23-05-2003 23:59:01 16 C 8.31 g/m*3 16 C 0 km/h
144 24-05-2003 00:10:02 15.8 C 8.48 g/m*3 15.8 C 0 km/h
145 24-05-2003 00:20:02 15.8 C 8.62 g/m*3 15.8 C 0 km/h
146 24-05-2003 00:30:02 15.7 C 8.56 g/m*3 15.7 C 0 km/h
147 24-05-2003 00:40:02 15.7 C 8.7 g/m*3 15.7 C 0 km/h
148 24-05-2003 00:50:02 15.6 C 8.64 g/m*3 15.6 C 0 km/h
149 24-05-2003 01:00:02 15.4 C 8.67 g/m*3 15.4 C 0 km/h
150 24-05-2003 01:10:02 15.2 C 8.44 g/m*3 15.2 C 0 km/h
Sensor: Nr:Datum:Temp:Abs-Feuchte:Windchill:Wind:
Aussen-T/F 151 24-05-2003 01:20:02 15.1 C 8.64 g/m*3 15.1 C 0 km/h
152 24-05-2003 01:30:02 15.1 C 8.77 g/m*3 15.1 C 0 km/h
153 24-05-2003 01:40:02 15 C 8.59 g/m*3 15 C 0 km/h
154 24-05-2003 01:50:02 15 C 8.59 g/m*3 15 C 0 km/h
155 24-05-2003 02:00:02 15 C 8.59 g/m*3 15 C 0 km/h
156 24-05-2003 02:10:02 15 C 8.72 g/m*3 15 C 0 km/h
157 24-05-2003 02:20:02 14.9 C 8.79 g/m*3 14.9 C 0 km/h
158 24-05-2003 02:30:02 14.6 C 8.76 g/m*3 14.6 C 0 km/h
159 24-05-2003 02:40:02 14.6 C 8.76 g/m*3 14.6 C 0 km/h
160 24-05-2003 02:50:02 14.6 C 8.76 g/m*3 14.6 C 0 km/h
161 24-05-2003 03:00:02 14.4 C 8.65 g/m*3 14.4 C 0 km/h
162 24-05-2003 03:10:02 14.2 C 8.67 g/m*3 14.2 C 0 km/h
163 24-05-2003 03:20:02 14.1 C 8.62 g/m*3 14.1 C 0 km/h
164 24-05-2003 03:30:02 14 C 8.68 g/m*3 14 C 0 km/h
165 24-05-2003 03:40:02 14 C 8.56 g/m*3 14 C 0 km/h
166 24-05-2003 03:50:02 13.7 C 8.64 g/m*3 13.7 C 0 km/h
167 24-05-2003 04:00:02 13.6 C 8.71 g/m*3 13.6 C 0 km/h
168 24-05-2003 04:10:02 13.5 C 8.66 g/m*3 13.5 C 0 km/h
169 24-05-2003 04:20:02 13.3 C 8.55 g/m*3 13.3 C 0 km/h
170 24-05-2003 04:30:02 13.3 C 8.66 g/m*3 13.3 C 0 km/h
171 24-05-2003 04:40:02 13.3 C 8.78 g/m*3 13.3 C 0 km/h
172 24-05-2003 04:50:02 13.3 C 8.78 g/m*3 13.3 C 0 km/h
173 24-05-2003 05:00:02 13.3 C 8.9 g/m*3 13.3 C 0 km/h
174 24-05-2003 05:10:02 13.4 C 8.95 g/m*3 13.4 C 0 km/h
175 24-05-2003 05:20:02 13.3 C 8.9 g/m*3 13.3 C 0 km/h
Sensor: Nr:Datum:Temp:Abs-Feuchte:Windchill:Wind:
Aussen-T/F 176 24-05-2003 05:30:02 13.2 C 8.96 g/m*3 13.2 C 0 km/h
177 24-05-2003 05:40:02 13.2 C 9.07 g/m*3 13.2 C 0 km/h
178 24-05-2003 05:50:02 13.1 C 9.01 g/m*3 13.1 C 0 km/h
179 24-05-2003 06:00:02 13 C 8.96 g/m*3 13 C 0 km/h
180 24-05-2003 06:10:02 13 C 9.07 g/m*3 13 C 0 km/h
181 24-05-2003 06:20:02 13.1 C 9.24 g/m*3 13.1 C 0 km/h
182 24-05-2003 06:30:02 13.3 C 9.24 g/m*3 13.3 C 0 km/h
183 24-05-2003 06:40:02 13.5 C 9.24 g/m*3 13.5 C 0 km/h
184 24-05-2003 06:50:02 13.6 C 9.3 g/m*3 13.6 C 0 km/h
185 24-05-2003 07:00:02 13.7 C 9.35 g/m*3 13.7 C 0 km/h
186 24-05-2003 07:10:02 13.9 C 9.35 g/m*3 13.9 C 0 km/h
187 24-05-2003 07:20:02 13.9 C 9.35 g/m*3 13.9 C 0 km/h
188 24-05-2003 07:30:02 14.2 C 9.4 g/m*3 14.2 C 0 km/h
189 24-05-2003 07:40:02 14.3 C 9.34 g/m*3 14.3 C 0 km/h
190 24-05-2003 07:50:02 14.5 C 9.33 g/m*3 14.5 C 0 km/h
191 24-05-2003 08:00:02 14.7 C 9.32 g/m*3 14.7 C 0 km/h
192 24-05-2003 08:10:02 14.8 C 9.5 g/m*3 14.8 C 0 km/h
193 24-05-2003 08:20:02 14.4 C 9.64 g/m*3 14.4 C 0 km/h
194 24-05-2003 08:30:02 14.2 C 9.65 g/m*3 14.2 C 0 km/h
195 24-05-2003 08:40:02 14.4 C 9.64 g/m*3 14.4 C 0 km/h
196 24-05-2003 08:50:02 14.8 C 9.88 g/m*3 14.8 C 0 km/h
197 24-05-2003 09:00:02 15 C 9.75 g/m*3 15 C 0 km/h
198 24-05-2003 09:10:02 15.7 C 10.03 g/m*3 15.7 C 0 km/h
199 24-05-2003 09:20:02 16.1 C 10.14 g/m*3 16.1 C 0 km/h
200 24-05-2003 09:30:02 16.9 C 10.64 g/m*3 16.9 C 0 km/h
Sensor: Nr:Datum:Temp:Abs-Feuchte:Windchill:Wind:
Aussen-T/F 201 24-05-2003 09:40:02 17.4 C 10.08 g/m*3 17.4 C 0 km/h
202 24-05-2003 09:50:02 17.9 C 10.38 g/m*3 17.9 C 0 km/h
203 24-05-2003 10:00:02 18.2 C 10.1 g/m*3 18.2 C 0 km/h
204 24-05-2003 10:10:02 18.1 C 9.89 g/m*3 18.1 C 0 km/h
205 24-05-2003 10:20:02 18.3 C 10.16 g/m*3 18.3 C 0 km/h
206 24-05-2003 10:30:02 19 C 10.1 g/m*3 19 C 0 km/h
207 24-05-2003 10:40:02 19.6 C 9.96 g/m*3 19.6 C 0 km/h
208 24-05-2003 10:50:02 19.7 C 9.68 g/m*3 19.7 C 0 km/h
209 24-05-2003 11:00:02 20.2 C 9.79 g/m*3 20.2 C 0 km/h
210 24-05-2003 11:10:02 20.4 C 9.73 g/m*3 20.4 C 0 km/h
211 24-05-2003 11:20:02 20.3 C 9.85 g/m*3 20.3 C 0 km/h
212 24-05-2003 11:30:02 20.3 C 10.02 g/m*3 20.3 C 0 km/h
213 24-05-2003 11:40:01 20.8 C 10.32 g/m*3 20.8 C 0 km/h
214 24-05-2003 11:50:01 21.6 C 10.05 g/m*3 21.6 C 0 km/h
215 24-05-2003 12:00:01 22 C 9.7 g/m*3 22 C 0 km/h
216 24-05-2003 12:10:00 22.6 C 9.84 g/m*3 22.6 C 0 km/h
217 24-05-2003 12:20:00 22.3 C 9.08 g/m*3 22.3 C 0 km/h
218 24-05-2003 12:30:00 22.7 C 9.5 g/m*3 22.7 C 0 km/h
219 24-05-2003 12:40:01 23.4 C 9.04 g/m*3 23.4 C 0 km/h
220 24-05-2003 12:50:01 23.9 C 9.74 g/m*3 23.9 C 0 km/h
221 24-05-2003 13:00:01 24.1 C 9.19 g/m*3 24.1 C 0 km/h
222 24-05-2003 13:10:02 24.4 C 9.57 g/m*3 24.4 C 0 km/h
223 24-05-2003 13:20:02 24.6 C 9.68 g/m*3 24.6 C 0 km/h
224 24-05-2003 13:30:02 25.2 C 8.85 g/m*3 25.2 C 0 km/h
225 24-05-2003 13:40:01 24.8 C 9.1 g/m*3 24.8 C 0 km/h
Sensor: Nr:Datum:Temp:Abs-Feuchte:Windchill:Wind:
Aussen-T/F 226 24-05-2003 13:50:01 24.9 C 9.16 g/m*3 24.9 C 0 km/h
227 24-05-2003 14:00:01 25.9 C 9.68 g/m*3 25.9 C 0 km/h
228 24-05-2003 14:10:01 26.5 C 9.01 g/m*3 26.5 C 0 km/h
229 24-05-2003 14:20:01 26.3 C 9.16 g/m*3 26.3 C 0 km/h
230 24-05-2003 14:30:01 26.7 C 9.87 g/m*3 26.7 C 0 km/h
231 24-05-2003 14:40:00 26.9 C 9.21 g/m*3 26.9 C 0 km/h
232 24-05-2003 14:50:00 27 C 9.52 g/m*3 27 C 0 km/h
233 24-05-2003 15:00:00 27 C 9.01 g/m*3 27 C 0 km/h
234 24-05-2003 15:10:02 27.1 C 8.8 g/m*3 27.1 C 0 km/h
235 24-05-2003 15:20:02 26.6 C 9.06 g/m*3 26.6 C 0 km/h
236 24-05-2003 15:30:02 26.9 C 8.96 g/m*3 26.9 C 0 km/h
237 24-05-2003 15:40:01 26.8 C 8.91 g/m*3 26.8 C 0 km/h
238 24-05-2003 15:50:01 26.2 C 8.86 g/m*3 26.2 C 0 km/h
239 24-05-2003 16:00:01 26.3 C 8.91 g/m*3 26.3 C 0 km/h
240 24-05-2003 16:10:01 26.6 C 9.06 g/m*3 26.6 C 0 km/h
241 24-05-2003 16:20:01 26.9 C 9.21 g/m*3 26.9 C 0 km/h
242 24-05-2003 16:30:01 28.2 C 9.62 g/m*3 28.2 C 0 km/h
243 24-05-2003 16:40:02 29.1 C 9.53 g/m*3 29.1 C 0 km/h
244 24-05-2003 16:50:02 28.9 C 9.71 g/m*3 28.9 C 0 km/h
245 24-05-2003 17:00:02 29.2 C 9.87 g/m*3 29.2 C 0 km/h
246 24-05-2003 17:10:01 28.7 C 9.61 g/m*3 28.7 C 0 km/h
247 24-05-2003 17:20:01 28.4 C 10.84 g/m*3 28.4 C 0 km/h
248 24-05-2003 17:30:01 27.5 C 9.52 g/m*3 27.5 C 0 km/h
249 24-05-2003 17:40:01 27.5 C 9.52 g/m*3 27.5 C 0 km/h
250 24-05-2003 17:50:01 27.3 C 9.68 g/m*3 27.3 C 0 km/h
Sensor: Nr:Datum:Temp:Abs-Feuchte:Windchill:Wind:
Aussen-T/F 251 24-05-2003 18:00:01 27 C 9.52 g/m*3 27 C 0 km/h
252 24-05-2003 18:10:02 27.7 C 9.36 g/m*3 27.7 C 0 km/h
253 24-05-2003 18:20:02 28 C 9.52 g/m*3 28 C 0 km/h
254 24-05-2003 18:30:02 27.8 C 9.41 g/m*3 27.8 C 0 km/h
255 24-05-2003 18:40:02 26 C 9.01 g/m*3 26 C 0 km/h
256 24-05-2003 18:50:02 24.5 C 9.4 g/m*3 24.5 C 0 km/h
257 24-05-2003 19:00:02 24.1 C 9.85 g/m*3 24.1 C 0 km/h
258 24-05-2003 19:10:01 23.2 C 9.98 g/m*3 23.2 C 0 km/h
259 24-05-2003 19:20:01 23.2 C 9.98 g/m*3 23.2 C 0 km/h
260 24-05-2003 19:30:01 23.4 C 10.09 g/m*3 23.4 C 0 km/h
261 24-05-2003 19:40:01 23.4 C 10.09 g/m*3 23.4 C 0 km/h
262 24-05-2003 19:50:01 22.8 C 10.16 g/m*3 22.8 C 0 km/h
263 24-05-2003 20:10:01 22.5 C 10.39 g/m*3 22.5 C 0 km/h
264 24-05-2003 20:20:01 22.3 C 10.47 g/m*3 22.3 C 0 km/h
265 24-05-2003 20:30:01 22 C 10.29 g/m*3 22 C 0 km/h
266 24-05-2003 20:40:02 21.7 C 10.3 g/m*3 21.7 C 0 km/h
267 24-05-2003 20:50:02 21.5 C 9.99 g/m*3 21.5 C 0 km/h
268 24-05-2003 21:00:02 21.4 C 10.12 g/m*3 21.4 C 0 km/h
269 24-05-2003 21:10:01 21.2 C 10.19 g/m*3 21.2 C 0 km/h
270 24-05-2003 21:20:01 21.1 C 10.13 g/m*3 21.1 C 0 km/h
271 24-05-2003 21:30:01 20.8 C 10.14 g/m*3 20.8 C 0 km/h
272 24-05-2003 21:40:01 20.6 C 10.38 g/m*3 20.6 C 0 km/h
273 24-05-2003 21:50:01 20.2 C 10.32 g/m*3 20.2 C 0 km/h
274 24-05-2003 22:00:01 20 C 10.71 g/m*3 20 C 0 km/h
275 24-05-2003 22:10:01 19.6 C 10.64 g/m*3 19.6 C 0 km/h
Sensor: Nr:Datum:Temp:Abs-Feuchte:Windchill:Wind:
Aussen-T/F 276 24-05-2003 22:20:01 19.6 C 10.8 g/m*3 19.6 C 0 km/h
277 24-05-2003 22:30:01 17.8 C 11.38 g/m*3 17.8 C 0 km/h
278 24-05-2003 22:41:03 17.4 C 12.15 g/m*3 17.4 C 0 km/h
279 24-05-2003 22:51:03 17.5 C 12.37 g/m*3 17.5 C 0 km/h
280 24-05-2003 23:01:03 17.1 C 11.06 g/m*3 17.1 C 0 km/h
281 24-05-2003 23:11:03 16.6 C 11.02 g/m*3 16.6 C 0 km/h
282 24-05-2003 23:21:03 16.3 C 10.82 g/m*3 16.3 C 0 km/h
283 24-05-2003 23:31:03 16.3 C 10.96 g/m*3 16.3 C 0 km/h
284 24-05-2003 23:41:03 16.2 C 11.17 g/m*3 16.2 C 0 km/h
285 24-05-2003 23:51:03 16.2 C 11.03 g/m*3 16.2 C 0 km/h
286 25-05-2003 00:01:03 16.2 C 10.89 g/m*3 16.2 C 0 km/h
287 25-05-2003 00:11:03 16.2 C 11.03 g/m*3 16.2 C 0 km/h
288 25-05-2003 00:21:03 16.3 C 10.96 g/m*3 16.3 C 0 km/h
289 25-05-2003 00:31:03 16.1 C 10.69 g/m*3 16.1 C 0 km/h
290 25-05-2003 00:41:03 16.2 C 10.62 g/m*3 16.2 C 0 km/h
291 25-05-2003 00:51:03 16.1 C 10.55 g/m*3 16.1 C 0 km/h
292 25-05-2003 01:01:03 15.9 C 10.29 g/m*3 15.9 C 0 km/h
293 25-05-2003 01:11:03 15.8 C 9.96 g/m*3 15.8 C 0 km/h
294 25-05-2003 01:21:03 15.9 C 10.29 g/m*3 15.9 C 0 km/h
295 25-05-2003 01:31:03 16 C 10.22 g/m*3 16 C 0 km/h
296 25-05-2003 01:41:03 16 C 10.08 g/m*3 16 C 0 km/h
297 25-05-2003 01:51:03 15.7 C 10.17 g/m*3 15.7 C 0 km/h
298 25-05-2003 02:01:03 15.6 C 10.24 g/m*3 15.6 C 0 km/h
299 25-05-2003 02:11:03 15.4 C 10.12 g/m*3 15.4 C 0 km/h
300 25-05-2003 02:21:03 15.6 C 10.37 g/m*3 15.6 C 0 km/h
Sensor: Nr:Datum:Temp:Abs-Feuchte:Windchill:Wind:
Aussen-T/F 301 25-05-2003 02:31:03 15.6 C 10.24 g/m*3 15.6 C 0 km/h
302 25-05-2003 02:41:03 15.3 C 10.19 g/m*3 15.3 C 0 km/h
303 25-05-2003 02:51:03 15.5 C 10.31 g/m*3 15.5 C 0 km/h
304 25-05-2003 03:01:03 15.5 C 10.31 g/m*3 15.5 C 0 km/h
305 25-05-2003 03:11:03 15.4 C 10.38 g/m*3 15.4 C 0 km/h
306 25-05-2003 03:21:03 15.4 C 10.51 g/m*3 15.4 C 0 km/h
307 25-05-2003 03:31:03 15.2 C 10.77 g/m*3 15.2 C 0 km/h
308 25-05-2003 03:41:03 14.9 C 10.83 g/m*3 14.9 C 0 km/h
309 25-05-2003 03:51:02 14.8 C 11.02 g/m*3 14.8 C 0 km/h
310 25-05-2003 03:51:03 14.8 C 11.02 g/m*3 14.8 C 0 km/h
311 25-05-2003 04:01:02 14.4 C 10.88 g/m*3 14.4 C 0 km/h
312 25-05-2003 04:11:02 14.4 C 11 g/m*3 14.4 C 0 km/h
313 25-05-2003 04:21:02 14.4 C 11 g/m*3 14.4 C 0 km/h
314 25-05-2003 04:31:02 14.3 C 10.93 g/m*3 14.3 C 0 km/h
315 25-05-2003 04:41:02 14.3 C 10.81 g/m*3 14.3 C 0 km/h
316 25-05-2003 04:51:02 14.3 C 10.69 g/m*3 14.3 C 0 km/h
317 25-05-2003 05:01:02 14.3 C 10.69 g/m*3 14.3 C 0 km/h
318 25-05-2003 05:11:02 14.2 C 10.62 g/m*3 14.2 C 0 km/h
319 25-05-2003 05:21:02 14.1 C 10.56 g/m*3 14.1 C 0 km/h
320 25-05-2003 05:31:02 14.1 C 10.68 g/m*3 14.1 C 0 km/h
321 25-05-2003 05:41:02 14 C 10.49 g/m*3 14 C 0 km/h
322 25-05-2003 05:51:02 14 C 10.49 g/m*3 14 C 0 km/h
323 25-05-2003 06:01:02 13.9 C 10.43 g/m*3 13.9 C 0 km/h
324 25-05-2003 06:11:02 13.6 C 10.24 g/m*3 13.6 C 0 km/h
325 25-05-2003 06:21:02 13.5 C 10.18 g/m*3 13.5 C 0 km/h
Sensor: Nr:Datum:Temp:Abs-Feuchte:Windchill:Wind:
Aussen-T/F 326 25-05-2003 06:31:01 13.5 C 10.18 g/m*3 13.5 C 0 km/h
327 25-05-2003 06:31:02 13.5 C 10.18 g/m*3 13.5 C 0 km/h
328 25-05-2003 06:41:01 13.6 C 10.12 g/m*3 13.6 C 0 km/h
329 25-05-2003 06:51:01 13.6 C 10.12 g/m*3 13.6 C 0 km/h
330 25-05-2003 07:01:01 13.7 C 10.18 g/m*3 13.7 C 0 km/h
331 25-05-2003 07:11:01 13.6 C 10 g/m*3 13.6 C 0 km/h
332 25-05-2003 07:21:01 13.7 C 9.95 g/m*3 13.7 C 0 km/h
333 25-05-2003 07:31:01 13.6 C 10 g/m*3 13.6 C 0 km/h
334 25-05-2003 07:41:01 13.5 C 10.06 g/m*3 13.5 C 0 km/h
335 25-05-2003 07:51:01 13.7 C 10.07 g/m*3 13.7 C 0 km/h
336 25-05-2003 08:01:01 13.9 C 10.19 g/m*3 13.9 C 0 km/h
337 25-05-2003 08:11:01 13.8 C 9.77 g/m*3 13.8 C 0 km/h
338 25-05-2003 08:21:01 13.9 C 9.83 g/m*3 13.9 C 0 km/h
339 25-05-2003 08:31:01 14.2 C 9.77 g/m*3 14.2 C 0 km/h
340 25-05-2003 08:41:01 14.5 C 9.45 g/m*3 14.5 C 0 km/h
341 25-05-2003 08:51:01 14.7 C 9.57 g/m*3 14.7 C 0 km/h
342 25-05-2003 09:01:01 14.7 C 9.57 g/m*3 14.7 C 0 km/h
343 25-05-2003 09:11:01 14.6 C 9.39 g/m*3 14.6 C 0 km/h
344 25-05-2003 09:21:01 14.5 C 9.2 g/m*3 14.5 C 0 km/h
345 25-05-2003 09:31:01 14.5 C 9.2 g/m*3 14.5 C 0 km/h
346 25-05-2003 09:41:01 14.8 C 9.25 g/m*3 14.8 C 0 km/h
347 25-05-2003 09:51:01 15.3 C 9.14 g/m*3 15.3 C 0 km/h
348 25-05-2003 10:01:01 15.4 C 9.07 g/m*3 15.4 C 0 km/h
349 25-05-2003 10:11:01 15.4 C 8.8 g/m*3 15.4 C 0 km/h
350 25-05-2003 10:21:01 15.7 C 8.96 g/m*3 15.7 C 0 km/h
Sensor: Nr:Datum:Temp:Abs-Feuchte:Windchill:Wind:
Aussen-T/F 351 25-05-2003 10:31:01 15.9 C 8.8 g/m*3 15.9 C 0 km/h
352 25-05-2003 10:41:01 16.3 C 8.74 g/m*3 16.3 C 0 km/h
353 25-05-2003 10:51:01 16.4 C 8.79 g/m*3 16.4 C 0 km/h
354 25-05-2003 11:01:01 16.8 C 9.01 g/m*3 16.8 C 0 km/h
355 25-05-2003 11:11:02 17.1 C 8.44 g/m*3 17.1 C 0 km/h
356 25-05-2003 11:21:02 17.3 C 8.25 g/m*3 17.3 C 0 km/h
357 25-05-2003 11:31:02 17.7 C 8.15 g/m*3 17.7 C 0 km/h
358 25-05-2003 11:41:02 17.7 C 8 g/m*3 17.7 C 0 km/h
359 25-05-2003 11:51:02 17.7 C 8 g/m*3 17.7 C 0 km/h
360 25-05-2003 12:01:02 17.5 C 8.2 g/m*3 17.5 C 0 km/h
361 25-05-2003 12:11:02 17.6 C 8.1 g/m*3 17.6 C 0 km/h
362 25-05-2003 12:21:02 17.2 C 8.2 g/m*3 17.2 C 0 km/h
363 25-05-2003 12:31:02 17.5 C 7.9 g/m*3 17.5 C 0 km/h
364 25-05-2003 12:41:00 17.7 C 7.69 g/m*3 17.7 C 0 km/h
365 25-05-2003 12:51:00 17.6 C 7.5 g/m*3 17.6 C 0 km/h
366 25-05-2003 13:01:00 17.5 C 7.45 g/m*3 17.5 C 0 km/h
367 25-05-2003 13:11:01 17.8 C 7.74 g/m*3 17.8 C 0 km/h
368 25-05-2003 13:21:01 18.3 C 7.66 g/m*3 18.3 C 0 km/h
369 25-05-2003 13:31:01 18.3 C 7.35 g/m*3 18.3 C 0 km/h
370 25-05-2003 13:41:01 18.6 C 7.32 g/m*3 18.6 C 0 km/h
371 25-05-2003 13:51:01 18.9 C 7.13 g/m*3 18.9 C 0 km/h
372 25-05-2003 14:01:01 18.8 C 7.25 g/m*3 18.8 C 0 km/h
373 25-05-2003 14:11:02 18 C 7.22 g/m*3 18 C 0 km/h
374 25-05-2003 14:21:02 17.4 C 7.56 g/m*3 17.4 C 0 km/h
375 25-05-2003 14:31:02 17.6 C 7.65 g/m*3 17.6 C 0 km/h
Sensor: Nr:Datum:Temp:Abs-Feuchte:Windchill:Wind:
Aussen-T/F 376 25-05-2003 14:41:01 18.1 C 7.42 g/m*3 18.1 C 0 km/h
377 25-05-2003 14:51:01 18.3 C 7.35 g/m*3 18.3 C 0 km/h
378 25-05-2003 15:01:01 18.9 C 7.45 g/m*3 18.9 C 0 km/h
379 25-05-2003 15:11:01 19.5 C 7.72 g/m*3 19.5 C 0 km/h
380 25-05-2003 15:21:01 19.1 C 7.05 g/m*3 19.1 C 0 km/h
381 25-05-2003 15:31:01 19.2 C 7.09 g/m*3 19.2 C 0 km/h
382 25-05-2003 15:41:01 19.5 C 7.05 g/m*3 19.5 C 0 km/h
383 25-05-2003 15:51:01 19.7 C 7.3 g/m*3 19.7 C 0 km/h
384 25-05-2003 16:01:01 18.9 C 6.97 g/m*3 18.9 C 0 km/h
385 25-05-2003 16:11:02 19 C 6.52 g/m*3 19 C 0 km/h
386 25-05-2003 16:21:02 18.8 C 6.6 g/m*3 18.8 C 0 km/h
387 25-05-2003 16:31:02 18.9 C 6.64 g/m*3 18.9 C 0 km/h
388 25-05-2003 16:41:01 18.9 C 6.97 g/m*3 18.9 C 0 km/h
389 25-05-2003 16:51:01 19 C 6.84 g/m*3 19 C 0 km/h
390 25-05-2003 17:01:01 19.5 C 7.22 g/m*3 19.5 C 0 km/h
391 25-05-2003 17:11:01 19.1 C 6.88 g/m*3 19.1 C 0 km/h
392 25-05-2003 17:21:01 19 C 7.17 g/m*3 19 C 0 km/h
393 25-05-2003 17:31:01 18.5 C 7.12 g/m*3 18.5 C 0 km/h
394 25-05-2003 17:41:02 18 C 7.07 g/m*3 18 C 0 km/h
395 25-05-2003 17:51:02 17.9 C 7.18 g/m*3 17.9 C 0 km/h
396 25-05-2003 18:01:02 17.9 C 7.02 g/m*3 17.9 C 0 km/h
397 25-05-2003 18:11:02 18 C 6.91 g/m*3 18 C 0 km/h
398 25-05-2003 18:21:02 17.7 C 6.94 g/m*3 17.7 C 0 km/h
399 25-05-2003 18:31:02 17.7 C 7.09 g/m*3 17.7 C 0 km/h
400 25-05-2003 18:41:00 17.5 C 7.16 g/m*3 17.5 C 0 km/h
Sensor: Nr:Datum:Temp:Abs-Feuchte:Windchill:Wind:
Aussen-T/F 401 25-05-2003 18:51:00 17.3 C 6.92 g/m*3 17.3 C 0 km/h
402 25-05-2003 19:01:00 17.5 C 7.01 g/m*3 17.5 C 0 km/h
403 25-05-2003 19:11:02 17.3 C 7.07 g/m*3 17.3 C 0 km/h
404 25-05-2003 19:21:02 17.2 C 7.18 g/m*3 17.2 C 0 km/h
405 25-05-2003 19:31:02 17.2 C 7.32 g/m*3 17.2 C 0 km/h
406 25-05-2003 19:41:01 17.1 C 7.42 g/m*3 17.1 C 0 km/h
407 25-05-2003 19:51:01 16.9 C 7.34 g/m*3 16.9 C 0 km/h
408 25-05-2003 20:01:01 17 C 7.38 g/m*3 17 C 0 km/h
409 25-05-2003 20:11:01 16.9 C 7.34 g/m*3 16.9 C 0 km/h
410 25-05-2003 20:21:01 16.9 C 7.48 g/m*3 16.9 C 0 km/h
411 25-05-2003 20:31:01 16.6 C 7.63 g/m*3 16.6 C 0 km/h
412 25-05-2003 20:41:00 16.5 C 7.58 g/m*3 16.5 C 0 km/h
413 25-05-2003 20:51:00 16.2 C 7.58 g/m*3 16.2 C 0 km/h
414 25-05-2003 21:01:00 15.6 C 7.71 g/m*3 15.6 C 0 km/h
415 25-05-2003 21:11:01 15 C 7.44 g/m*3 15 C 0 km/h
416 25-05-2003 21:21:01 14.4 C 7.54 g/m*3 14.4 C 0 km/h
417 25-05-2003 21:31:01 14.1 C 7.52 g/m*3 14.1 C 0 km/h
418 25-05-2003 21:42:01 14.1 C 7.65 g/m*3 14.1 C 0 km/h
419 25-05-2003 21:52:01 14.1 C 7.77 g/m*3 14.1 C 0 km/h
420 25-05-2003 22:02:01 14.1 C 8.01 g/m*3 14.1 C 0 km/h
421 25-05-2003 22:12:01 14.1 C 8.01 g/m*3 14.1 C 0 km/h
422 25-05-2003 22:22:01 14.2 C 8.06 g/m*3 14.2 C 0 km/h
423 25-05-2003 22:32:01 14.2 C 7.94 g/m*3 14.2 C 0 km/h
424 25-05-2003 22:42:01 14.1 C 7.89 g/m*3 14.1 C 0 km/h
425 25-05-2003 22:52:01 13.7 C 8.05 g/m*3 13.7 C 0 km/h
Sensor: Nr:Datum:Temp:Abs-Feuchte:Windchill:Wind:
Aussen-T/F 426 25-05-2003 23:02:01 13.6 C 8.12 g/m*3 13.6 C 0 km/h
427 25-05-2003 23:12:01 13.4 C 8.02 g/m*3 13.4 C 0 km/h
428 25-05-2003 23:22:01 13.5 C 7.95 g/m*3 13.5 C 0 km/h
429 25-05-2003 23:32:01 13.5 C 8.07 g/m*3 13.5 C 0 km/h
430 25-05-2003 23:42:01 13.4 C 7.9 g/m*3 13.4 C 0 km/h
431 25-05-2003 23:52:01 13.4 C 7.9 g/m*3 13.4 C 0 km/h
432 26-05-2003 00:02:01 13.1 C 7.87 g/m*3 13.1 C 0 km/h
433 26-05-2003 00:12:01 13.1 C 8.1 g/m*3 13.1 C 0 km/h
434 26-05-2003 00:22:01 13.2 C 8.04 g/m*3 13.2 C 0 km/h
435 26-05-2003 00:32:01 13.3 C 8.09 g/m*3 13.3 C 0 km/h
436 26-05-2003 00:42:01 13.2 C 8.27 g/m*3 13.2 C 0 km/h
437 26-05-2003 00:52:01 13.2 C 8.04 g/m*3 13.2 C 0 km/h
438 26-05-2003 01:02:01 13.1 C 8.22 g/m*3 13.1 C 0 km/h
439 26-05-2003 01:12:01 13 C 8.51 g/m*3 13 C 0 km/h
440 26-05-2003 01:22:01 12.7 C 8.57 g/m*3 12.7 C 0 km/h
441 26-05-2003 01:32:01 12.8 C 8.51 g/m*3 12.8 C 0 km/h
442 26-05-2003 01:42:01 13 C 8.39 g/m*3 13 C 0 km/h
443 26-05-2003 01:52:01 13.1 C 8.22 g/m*3 13.1 C 0 km/h
444 26-05-2003 02:02:01 13.1 C 8.33 g/m*3 13.1 C 0 km/h
445 26-05-2003 02:12:01 13.1 C 8.44 g/m*3 13.1 C 0 km/h
446 26-05-2003 02:22:01 13 C 8.28 g/m*3 13 C 0 km/h
447 26-05-2003 02:32:01 13 C 8.39 g/m*3 13 C 0 km/h
448 26-05-2003 02:42:01 12.9 C 8.34 g/m*3 12.9 C 0 km/h
449 26-05-2003 02:52:01 12.9 C 8.34 g/m*3 12.9 C 0 km/h
450 26-05-2003 03:02:01 12.8 C 8.29 g/m*3 12.8 C 0 km/h
Sensor: Nr:Datum:Temp:Abs-Feuchte:Windchill:Wind:
Aussen-T/F 451 26-05-2003 03:12:01 12.5 C 8.36 g/m*3 12.5 C 0 km/h
452 26-05-2003 03:22:01 12.4 C 8.3 g/m*3 12.4 C 0 km/h
453 26-05-2003 03:32:01 12.5 C 8.36 g/m*3 12.5 C 0 km/h
454 26-05-2003 03:42:01 12.5 C 8.25 g/m*3 12.5 C 0 km/h
455 26-05-2003 03:52:01 12.5 C 8.14 g/m*3 12.5 C 0 km/h
456 26-05-2003 04:02:01 12.5 C 8.14 g/m*3 12.5 C 0 km/h
457 26-05-2003 04:12:01 12.5 C 8.03 g/m*3 12.5 C 0 km/h
458 26-05-2003 04:22:01 12.5 C 8.03 g/m*3 12.5 C 0 km/h
459 26-05-2003 04:32:01 12.5 C 8.14 g/m*3 12.5 C 0 km/h
460 26-05-2003 04:42:01 12.5 C 8.03 g/m*3 12.5 C 0 km/h
461 26-05-2003 04:52:01 12.4 C 7.98 g/m*3 12.4 C 0 km/h
462 26-05-2003 05:02:01 12.4 C 8.09 g/m*3 12.4 C 0 km/h
463 26-05-2003 05:12:01 12.3 C 8.04 g/m*3 12.3 C 0 km/h
464 26-05-2003 05:22:01 12.3 C 8.04 g/m*3 12.3 C 0 km/h
465 26-05-2003 05:32:01 12.3 C 8.14 g/m*3 12.3 C 0 km/h
466 26-05-2003 05:42:01 12.4 C 8.09 g/m*3 12.4 C 0 km/h
467 26-05-2003 05:52:01 12.3 C 8.14 g/m*3 12.3 C 0 km/h
468 26-05-2003 06:02:01 12.3 C 8.14 g/m*3 12.3 C 0 km/h
469 26-05-2003 06:12:01 12.4 C 8.19 g/m*3 12.4 C 0 km/h
470 26-05-2003 06:22:01 12.5 C 8.25 g/m*3 12.5 C 0 km/h
471 26-05-2003 06:32:01 12.6 C 8.3 g/m*3 12.6 C 0 km/h
472 26-05-2003 06:42:01 12.7 C 8.35 g/m*3 12.7 C 0 km/h
473 26-05-2003 06:52:01 12.7 C 8.35 g/m*3 12.7 C 0 km/h
474 26-05-2003 07:02:01 12.8 C 8.4 g/m*3 12.8 C 0 km/h
475 26-05-2003 07:12:01 12.9 C 8.34 g/m*3 12.9 C 0 km/h
Sensor: Nr:Datum:Temp:Abs-Feuchte:Windchill:Wind:
Aussen-T/F 476 26-05-2003 07:22:01 13 C 8.28 g/m*3 13 C 0 km/h
477 26-05-2003 07:32:01 13.2 C 8.38 g/m*3 13.2 C 0 km/h
478 26-05-2003 07:42:01 13.2 C 8.27 g/m*3 13.2 C 0 km/h
479 26-05-2003 07:52:01 13.4 C 8.37 g/m*3 13.4 C 0 km/h
480 26-05-2003 08:02:01 13.6 C 8.36 g/m*3 13.6 C 0 km/h
481 26-05-2003 08:12:01 13.9 C 8.51 g/m*3 13.9 C 0 km/h
482 26-05-2003 08:22:01 14.2 C 8.3 g/m*3 14.2 C 0 km/h
483 26-05-2003 08:32:02 14.3 C 8.35 g/m*3 14.3 C 0 km/h
484 26-05-2003 08:42:02 14.6 C 8.51 g/m*3 14.6 C 0 km/h
485 26-05-2003 08:52:02 14.8 C 8.49 g/m*3 14.8 C 0 km/h
486 26-05-2003 09:02:01 15.1 C 8.39 g/m*3 15.1 C 0 km/h
487 26-05-2003 09:12:01 15.1 C 8.26 g/m*3 15.1 C 0 km/h
488 26-05-2003 09:22:01 15.5 C 8.46 g/m*3 15.5 C 0 km/h
489 26-05-2003 09:32:01 15.6 C 8.25 g/m*3 15.6 C 0 km/h
490 26-05-2003 09:42:01 16.3 C 8.46 g/m*3 16.3 C 0 km/h
491 26-05-2003 09:52:01 16.7 C 8.38 g/m*3 16.7 C 0 km/h
492 26-05-2003 10:02:00 16.7 C 8.24 g/m*3 16.7 C 0 km/h
493 26-05-2003 10:12:00 17.3 C 8.4 g/m*3 17.3 C 0 km/h
494 26-05-2003 10:22:00 17.5 C 8.35 g/m*3 17.5 C 0 km/h
495 26-05-2003 10:32:01 17.6 C 8.1 g/m*3 17.6 C 0 km/h
496 26-05-2003 10:42:01 17.7 C 8 g/m*3 17.7 C 0 km/h
497 26-05-2003 10:52:01 17.9 C 7.94 g/m*3 17.9 C 0 km/h
498 26-05-2003 11:02:02 18.1 C 7.73 g/m*3 18.1 C 0 km/h
499 26-05-2003 11:12:02 18.5 C 7.91 g/m*3 18.5 C 0 km/h
500 26-05-2003 11:22:02 19 C 7.99 g/m*3 19 C 0 km/h
Sensor: Nr:Datum:Temp:Abs-Feuchte:Windchill:Wind:
Aussen-T/F 501 26-05-2003 11:32:02 19.3 C 7.96 g/m*3 19.3 C 0 km/h
502 26-05-2003 11:42:02 19.3 C 7.8 g/m*3 19.3 C 0 km/h
503 26-05-2003 11:52:02 19.3 C 7.63 g/m*3 19.3 C 0 km/h
504 26-05-2003 12:02:01 18.6 C 7.64 g/m*3 18.6 C 0 km/h
505 26-05-2003 12:12:01 18.8 C 8.05 g/m*3 18.8 C 0 km/h
506 26-05-2003 12:22:01 19.5 C 7.89 g/m*3 19.5 C 0 km/h
507 26-05-2003 12:32:00 20.8 C 8.15 g/m*3 20.8 C 0 km/h
508 26-05-2003 12:42:00 21.7 C 7.63 g/m*3 21.7 C 0 km/h
509 26-05-2003 12:52:00 22 C 7.18 g/m*3 22 C 0 km/h
510 26-05-2003 13:02:01 22.5 C 7.59 g/m*3 22.5 C 0 km/h
511 26-05-2003 13:12:01 23.2 C 6.86 g/m*3 23.2 C 0 km/h
512 26-05-2003 13:22:01 21.8 C 7.67 g/m*3 21.8 C 0 km/h
513 26-05-2003 13:32:01 21.5 C 6.98 g/m*3 21.5 C 0 km/h
514 26-05-2003 13:42:01 22.5 C 6.79 g/m*3 22.5 C 0 km/h
515 26-05-2003 13:52:01 23 C 6.78 g/m*3 23 C 0 km/h
516 26-05-2003 14:02:01 22.7 C 7.07 g/m*3 22.7 C 0 km/h
517 26-05-2003 14:12:01 22 C 6.79 g/m*3 22 C 0 km/h
518 26-05-2003 14:22:01 22.7 C 7.48 g/m*3 22.7 C 0 km/h
519 26-05-2003 14:32:01 22.8 C 7.11 g/m*3 22.8 C 0 km/h
520 26-05-2003 14:52:01 23.4 C 6.94 g/m*3 23.4 C 0 km/h
521 26-05-2003 15:02:01 23.3 C 6.69 g/m*3 23.3 C 0 km/h
522 26-05-2003 15:12:01 23.3 C 6.9 g/m*3 23.3 C 0 km/h
523 26-05-2003 15:22:01 23.4 C 6.73 g/m*3 23.4 C 0 km/h
524 26-05-2003 15:32:02 23.3 C 6.69 g/m*3 23.3 C 0 km/h
525 26-05-2003 15:42:02 23.9 C 6.92 g/m*3 23.9 C 0 km/h
Sensor: Nr:Datum:Temp:Abs-Feuchte:Windchill:Wind:
Aussen-T/F 526 26-05-2003 15:52:02 24.5 C 6.94 g/m*3 24.5 C 0 km/h
527 26-05-2003 16:02:02 23.7 C 7.06 g/m*3 23.7 C 0 km/h
528 26-05-2003 16:12:02 23.3 C 6.69 g/m*3 23.3 C 0 km/h
529 26-05-2003 16:22:02 23.7 C 6.84 g/m*3 23.7 C 0 km/h
530 26-05-2003 16:32:00 23.5 C 6.77 g/m*3 23.5 C 0 km/h
531 26-05-2003 16:42:00 24 C 7.18 g/m*3 24 C 0 km/h
532 26-05-2003 16:52:00 24.1 C 7 g/m*3 24.1 C 0 km/h
533 26-05-2003 17:02:01 24.1 C 7.22 g/m*3 24.1 C 0 km/h
534 26-05-2003 17:12:01 24.1 C 6.78 g/m*3 24.1 C 0 km/h
535 26-05-2003 17:22:01 25.8 C 7.22 g/m*3 25.8 C 0 km/h
536 26-05-2003 17:32:00 24.7 C 6.11 g/m*3 24.7 C 0 km/h
537 26-05-2003 17:42:00 24.5 C 6.49 g/m*3 24.5 C 0 km/h
538 26-05-2003 17:52:00 25.3 C 6.79 g/m*3 25.3 C 0 km/h
539 26-05-2003 18:02:01 25.1 C 6.71 g/m*3 25.1 C 0 km/h
540 26-05-2003 18:12:01 24.2 C 6.82 g/m*3 24.2 C 0 km/h
541 26-05-2003 18:22:01 24.4 C 6.68 g/m*3 24.4 C 0 km/h
542 26-05-2003 18:32:01 23.4 C 6.73 g/m*3 23.4 C 0 km/h
543 26-05-2003 18:42:01 22.9 C 6.95 g/m*3 22.9 C 0 km/h
544 26-05-2003 18:52:01 22.6 C 7.03 g/m*3 22.6 C 0 km/h
545 26-05-2003 19:02:02 22.2 C 6.87 g/m*3 22.2 C 0 km/h
546 26-05-2003 19:12:02 22.5 C 7.39 g/m*3 22.5 C 0 km/h
547 26-05-2003 19:22:02 22.5 C 7.39 g/m*3 22.5 C 0 km/h
548 26-05-2003 19:32:01 22.5 C 7.19 g/m*3 22.5 C 0 km/h
549 26-05-2003 19:42:01 22.3 C 7.31 g/m*3 22.3 C 0 km/h
550 26-05-2003 19:52:01 22 C 8.15 g/m*3 22 C 0 km/h
Sensor: Nr:Datum:Temp:Abs-Feuchte:Windchill:Wind:
Aussen-T/F 551 26-05-2003 20:02:00 21.7 C 8.58 g/m*3 21.7 C 0 km/h
552 26-05-2003 20:12:00 21.1 C 8.48 g/m*3 21.1 C 0 km/h
553 26-05-2003 20:22:00 20.2 C 8.57 g/m*3 20.2 C 0 km/h
554 26-05-2003 20:33:27 19.7 C 8.66 g/m*3 19.7 C 0 km/h
555 26-05-2003 20:43:27 19.5 C 8.73 g/m*3 19.5 C 0 km/h
556 26-05-2003 20:53:27 19.2 C 8.24 g/m*3 19.2 C 0 km/h
557 26-05-2003 21:03:27 19.1 C 8.2 g/m*3 19.1 C 0 km/h
558 26-05-2003 21:13:27 18.9 C 8.59 g/m*3 18.9 C 0 km/h
559 26-05-2003 21:23:27 18.9 C 8.59 g/m*3 18.9 C 0 km/h
560 26-05-2003 21:33:27 18.7 C 8.49 g/m*3 18.7 C 0 km/h
561 26-05-2003 21:43:27 18.7 C 8.81 g/m*3 18.7 C 0 km/h
562 26-05-2003 21:53:27 18.7 C 9.13 g/m*3 18.7 C 0 km/h
563 26-05-2003 22:03:27 18.5 C 9.02 g/m*3 18.5 C 0 km/h
564 26-05-2003 22:13:27 18.5 C 8.86 g/m*3 18.5 C 0 km/h
565 26-05-2003 22:23:27 18.3 C 8.91 g/m*3 18.3 C 0 km/h
566 26-05-2003 22:33:27 18.3 C 9.22 g/m*3 18.3 C 0 km/h
567 26-05-2003 22:43:27 18.3 C 9.07 g/m*3 18.3 C 0 km/h
568 26-05-2003 22:53:27 18.4 C 9.12 g/m*3 18.4 C 0 km/h
569 26-05-2003 23:03:27 18.2 C 9.01 g/m*3 18.2 C 0 km/h
570 26-05-2003 23:13:27 18.2 C 9.01 g/m*3 18.2 C 0 km/h
571 26-05-2003 23:23:27 18.1 C 9.12 g/m*3 18.1 C 0 km/h
572 26-05-2003 23:33:27 17.9 C 9.16 g/m*3 17.9 C 0 km/h
573 26-05-2003 23:43:27 17.8 C 9.26 g/m*3 17.8 C 0 km/h
574 26-05-2003 23:53:27 17.7 C 9.35 g/m*3 17.7 C 0 km/h
575 27-05-2003 00:03:27 17.6 C 9.15 g/m*3 17.6 C 0 km/h
Sensor: Nr:Datum:Temp:Abs-Feuchte:Windchill:Wind:
Aussen-T/F 576 27-05-2003 00:13:27 17.2 C 9.23 g/m*3 17.2 C 0 km/h
577 27-05-2003 00:23:27 17.4 C 9.34 g/m*3 17.4 C 0 km/h
578 27-05-2003 00:33:27 17.2 C 9.23 g/m*3 17.2 C 0 km/h
579 27-05-2003 00:43:27 17.2 C 9.23 g/m*3 17.2 C 0 km/h
580 27-05-2003 00:53:27 17.1 C 9.32 g/m*3 17.1 C 0 km/h
581 27-05-2003 01:03:27 16.9 C 9.21 g/m*3 16.9 C 0 km/h
582 27-05-2003 01:13:27 16.6 C 9.04 g/m*3 16.6 C 0 km/h
583 27-05-2003 01:23:27 16.4 C 9.07 g/m*3 16.4 C 0 km/h
584 27-05-2003 01:33:27 16.1 C 9.05 g/m*3 16.1 C 0 km/h
585 27-05-2003 01:43:27 16.3 C 9.3 g/m*3 16.3 C 0 km/h
586 27-05-2003 01:53:27 16.5 C 9.41 g/m*3 16.5 C 0 km/h
587 27-05-2003 02:03:27 16.5 C 9.27 g/m*3 16.5 C 0 km/h
588 27-05-2003 02:13:27 16.2 C 9.1 g/m*3 16.2 C 0 km/h
589 27-05-2003 02:23:27 16.1 C 9.32 g/m*3 16.1 C 0 km/h
590 27-05-2003 02:33:27 16 C 9.13 g/m*3 16 C 0 km/h
591 27-05-2003 02:43:27 16 C 9.13 g/m*3 16 C 0 km/h
592 27-05-2003 02:53:27 16 C 9.26 g/m*3 16 C 0 km/h
593 27-05-2003 03:03:27 15.8 C 9.15 g/m*3 15.8 C 0 km/h
594 27-05-2003 03:13:27 15.8 C 9.29 g/m*3 15.8 C 0 km/h
595 27-05-2003 03:23:27 15.8 C 9.42 g/m*3 15.8 C 0 km/h
596 27-05-2003 03:33:27 15.7 C 9.37 g/m*3 15.7 C 0 km/h
597 27-05-2003 03:43:27 15.6 C 9.31 g/m*3 15.6 C 0 km/h
598 27-05-2003 03:53:27 15.8 C 9.42 g/m*3 15.8 C 0 km/h
599 27-05-2003 04:03:27 15.7 C 9.37 g/m*3 15.7 C 0 km/h
600 27-05-2003 04:13:27 15.6 C 9.18 g/m*3 15.6 C 0 km/h
Sensor: Nr:Datum:Temp:Abs-Feuchte:Windchill:Wind:
Aussen-T/F 601 27-05-2003 04:23:27 15.4 C 9.07 g/m*3 15.4 C 0 km/h
602 27-05-2003 04:33:27 15.4 C 9.2 g/m*3 15.4 C 0 km/h
603 27-05-2003 04:43:27 15.2 C 9.22 g/m*3 15.2 C 0 km/h
604 27-05-2003 04:53:27 15.1 C 9.16 g/m*3 15.1 C 0 km/h
605 27-05-2003 05:03:27 15.1 C 9.16 g/m*3 15.1 C 0 km/h
606 27-05-2003 05:13:27 14.9 C 9.3 g/m*3 14.9 C 0 km/h
607 27-05-2003 05:23:27 14.7 C 9.19 g/m*3 14.7 C 0 km/h
608 27-05-2003 05:33:27 14.4 C 9.15 g/m*3 14.4 C 0 km/h
609 27-05-2003 05:43:27 14.2 C 9.04 g/m*3 14.2 C 0 km/h
610 27-05-2003 05:53:27 14 C 8.93 g/m*3 14 C 0 km/h
611 27-05-2003 06:03:27 14 C 9.05 g/m*3 14 C 0 km/h
612 27-05-2003 06:13:27 14.1 C 9.1 g/m*3 14.1 C 0 km/h
613 27-05-2003 06:23:27 14.1 C 9.22 g/m*3 14.1 C 0 km/h
614 27-05-2003 06:33:27 14.3 C 9.21 g/m*3 14.3 C 0 km/h
615 27-05-2003 06:43:27 14.5 C 9.2 g/m*3 14.5 C 0 km/h
616 27-05-2003 06:53:27 14.8 C 9.37 g/m*3 14.8 C 0 km/h
617 27-05-2003 07:03:27 15.2 C 9.48 g/m*3 15.2 C 0 km/h
618 27-05-2003 07:13:27 15.4 C 9.59 g/m*3 15.4 C 0 km/h
619 27-05-2003 07:23:27 15.4 C 9.59 g/m*3 15.4 C 0 km/h
620 27-05-2003 07:33:27 15.4 C 9.33 g/m*3 15.4 C 0 km/h
621 27-05-2003 07:43:00 15.5 C 9.39 g/m*3 15.5 C 0 km/h
622 27-05-2003 07:53:00 15.6 C 9.44 g/m*3 15.6 C 0 km/h
623 27-05-2003 08:03:00 15.6 C 9.31 g/m*3 15.6 C 0 km/h
624 27-05-2003 08:13:00 15.9 C 9.75 g/m*3 15.9 C 0 km/h
625 27-05-2003 08:23:00 16 C 9.26 g/m*3 16 C 0 km/h
Sensor: Nr:Datum:Temp:Abs-Feuchte:Windchill:Wind:
Aussen-T/F 626 27-05-2003 08:33:01 16.1 C 9.32 g/m*3 16.1 C 0 km/h
627 27-05-2003 08:43:01 16.6 C 9.61 g/m*3 16.6 C 0 km/h
628 27-05-2003 08:53:01 16.6 C 9.04 g/m*3 16.6 C 0 km/h
629 27-05-2003 09:03:01 17 C 9.12 g/m*3 17 C 0 km/h
630 27-05-2003 09:13:01 17.2 C 9.08 g/m*3 17.2 C 0 km/h
631 27-05-2003 09:23:01 17.4 C 9.48 g/m*3 17.4 C 0 km/h
632 27-05-2003 09:33:00 18 C 9.37 g/m*3 18 C 0 km/h
633 27-05-2003 09:43:00 18.3 C 9.69 g/m*3 18.3 C 0 km/h
634 27-05-2003 09:53:00 18.6 C 9.23 g/m*3 18.6 C 0 km/h
635 27-05-2003 10:03:03 19 C 9.29 g/m*3 19 C 0 km/h
636 27-05-2003 10:13:03 19.3 C 8.96 g/m*3 19.3 C 0 km/h
637 27-05-2003 10:23:03 20 C 8.99 g/m*3 20 C 0 km/h
638 27-05-2003 10:33:01 20.6 C 9.13 g/m*3 20.6 C 0 km/h
639 27-05-2003 10:43:01 21.2 C 9.08 g/m*3 21.2 C 0 km/h
640 27-05-2003 10:53:01 22 C 8.73 g/m*3 22 C 0 km/h
641 27-05-2003 11:03:02 21.9 C 8.68 g/m*3 21.9 C 0 km/h
642 27-05-2003 11:13:02 22 C 8.93 g/m*3 22 C 0 km/h
643 27-05-2003 11:23:02 22.8 C 9.14 g/m*3 22.8 C 0 km/h
644 27-05-2003 11:33:02 23 C 9.04 g/m*3 23 C 0 km/h
645 27-05-2003 11:43:02 23.6 C 8.93 g/m*3 23.6 C 0 km/h
646 27-05-2003 11:53:02 23.4 C 8.83 g/m*3 23.4 C 0 km/h
647 27-05-2003 12:03:02 23 C 8.22 g/m*3 23 C 0 km/h
648 27-05-2003 12:13:02 23.4 C 8.62 g/m*3 23.4 C 0 km/h
649 27-05-2003 12:23:02 23.6 C 8.51 g/m*3 23.6 C 0 km/h
650 27-05-2003 12:33:01 24.7 C 8.6 g/m*3 24.7 C 0 km/h
Sensor: Nr:Datum:Temp:Abs-Feuchte:Windchill:Wind:
Aussen-T/F 651 27-05-2003 12:43:01 23.6 C 8.29 g/m*3 23.6 C 0 km/h
652 27-05-2003 12:53:01 24.4 C 8.46 g/m*3 24.4 C 0 km/h
653 27-05-2003 13:03:02 24.1 C 8.97 g/m*3 24.1 C 0 km/h
654 27-05-2003 13:13:02 24.6 C 8.55 g/m*3 24.6 C 0 km/h
655 27-05-2003 13:23:02 23.7 C 8.56 g/m*3 23.7 C 0 km/h
656 27-05-2003 13:33:01 23.1 C 8.68 g/m*3 23.1 C 0 km/h
657 27-05-2003 13:43:01 23.2 C 8.73 g/m*3 23.2 C 0 km/h
658 27-05-2003 13:53:01 22.9 C 9.2 g/m*3 22.9 C 0 km/h
659 27-05-2003 14:03:02 23.4 C 9.04 g/m*3 23.4 C 0 km/h
660 27-05-2003 14:13:02 24.5 C 8.5 g/m*3 24.5 C 0 km/h
661 27-05-2003 14:23:02 24.6 C 8.33 g/m*3 24.6 C 0 km/h
662 27-05-2003 14:33:00 24.6 C 8.55 g/m*3 24.6 C 0 km/h
663 27-05-2003 14:43:00 25.5 C 8.29 g/m*3 25.5 C 0 km/h
664 27-05-2003 14:53:00 25.7 C 8.38 g/m*3 25.7 C 0 km/h
665 27-05-2003 15:03:01 26 C 8.52 g/m*3 26 C 0 km/h
666 27-05-2003 15:13:01 25.7 C 8.62 g/m*3 25.7 C 0 km/h
667 27-05-2003 15:23:01 25.7 C 8.62 g/m*3 25.7 C 0 km/h
668 27-05-2003 15:33:00 24.8 C 8.88 g/m*3 24.8 C 0 km/h
669 27-05-2003 15:43:00 24.2 C 9.02 g/m*3 24.2 C 0 km/h
670 27-05-2003 15:53:00 23.7 C 8.98 g/m*3 23.7 C 0 km/h
671 27-05-2003 16:03:01 23.4 C 8.83 g/m*3 23.4 C 0 km/h
672 27-05-2003 16:13:01 22.9 C 8.99 g/m*3 22.9 C 0 km/h
673 27-05-2003 16:23:01 22.9 C 8.99 g/m*3 22.9 C 0 km/h
674 27-05-2003 16:33:01 22.8 C 9.14 g/m*3 22.8 C 0 km/h
675 27-05-2003 16:43:01 22.7 C 9.09 g/m*3 22.7 C 0 km/h
Sensor: Nr:Datum:Temp:Abs-Feuchte:Windchill:Wind:
Aussen-T/F 676 27-05-2003 16:53:01 22.5 C 9.19 g/m*3 22.5 C 0 km/h
677 27-05-2003 17:03:02 22.4 C 9.33 g/m*3 22.4 C 0 km/h
678 27-05-2003 17:13:02 22.3 C 9.08 g/m*3 22.3 C 0 km/h
679 27-05-2003 17:23:02 22.5 C 9.39 g/m*3 22.5 C 0 km/h
680 27-05-2003 17:33:01 22.6 C 9.24 g/m*3 22.6 C 0 km/h
681 27-05-2003 17:43:01 22.8 C 9.35 g/m*3 22.8 C 0 km/h
682 27-05-2003 17:53:01 23 C 9.25 g/m*3 23 C 0 km/h
683 27-05-2003 18:03:02 22.9 C 9.61 g/m*3 22.9 C 0 km/h
684 27-05-2003 18:13:02 22.4 C 9.53 g/m*3 22.4 C 0 km/h
685 27-05-2003 18:23:02 22.2 C 9.42 g/m*3 22.2 C 0 km/h
686 27-05-2003 18:33:02 22 C 9.12 g/m*3 22 C 0 km/h
687 27-05-2003 18:43:02 22 C 9.51 g/m*3 22 C 0 km/h
688 27-05-2003 18:53:02 21.8 C 9.59 g/m*3 21.8 C 0 km/h
689 27-05-2003 19:03:00 21.7 C 9.54 g/m*3 21.7 C 0 km/h
690 27-05-2003 19:13:00 21.6 C 9.48 g/m*3 21.6 C 0 km/h
691 27-05-2003 19:23:00 21.4 C 9.56 g/m*3 21.4 C 0 km/h
692 27-05-2003 19:33:00 21.3 C 9.69 g/m*3 21.3 C 0 km/h
693 27-05-2003 19:43:00 21.1 C 10.13 g/m*3 21.1 C 0 km/h
694 27-05-2003 19:53:00 21 C 10.26 g/m*3 21 C 0 km/h
695 27-05-2003 20:03:00 20.7 C 10.26 g/m*3 20.7 C 0 km/h
696 27-05-2003 20:13:00 20.6 C 10.2 g/m*3 20.6 C 0 km/h
697 27-05-2003 20:23:00 20.4 C 9.91 g/m*3 20.4 C 0 km/h
698 27-05-2003 20:33:01 20.2 C 9.97 g/m*3 20.2 C 0 km/h
699 27-05-2003 20:43:01 20 C 10.02 g/m*3 20 C 0 km/h
700 27-05-2003 20:53:01 20 C 10.2 g/m*3 20 C 0 km/h
Sensor: Nr:Datum:Temp:Abs-Feuchte:Windchill:Wind:
Aussen-T/F 701 27-05-2003 21:03:01 19.7 C 10.19 g/m*3 19.7 C 0 km/h
702 27-05-2003 21:13:01 19.5 C 10.41 g/m*3 19.5 C 0 km/h
703 27-05-2003 21:23:01 19.3 C 10.28 g/m*3 19.3 C 0 km/h
704 27-05-2003 21:34:01 18.9 C 10.37 g/m*3 18.9 C 0 km/h
705 27-05-2003 21:44:01 18.7 C 10.25 g/m*3 18.7 C 0 km/h
706 27-05-2003 21:54:01 18.7 C 10.41 g/m*3 18.7 C 0 km/h
707 27-05-2003 22:04:01 18.6 C 10.5 g/m*3 18.6 C 0 km/h
708 27-05-2003 22:14:01 18.5 C 10.28 g/m*3 18.5 C 0 km/h
709 27-05-2003 22:24:01 18.5 C 10.28 g/m*3 18.5 C 0 km/h
710 27-05-2003 22:34:01 18.5 C 10.44 g/m*3 18.5 C 0 km/h
711 27-05-2003 22:44:01 18.3 C 10.32 g/m*3 18.3 C 0 km/h
712 27-05-2003 22:54:01 18.2 C 10.26 g/m*3 18.2 C 0 km/h
713 27-05-2003 23:04:01 18.1 C 10.04 g/m*3 18.1 C 0 km/h
714 27-05-2003 23:14:01 18.1 C 10.04 g/m*3 18.1 C 0 km/h
715 27-05-2003 23:24:01 18.1 C 9.89 g/m*3 18.1 C 0 km/h
716 27-05-2003 23:34:01 17.9 C 9.77 g/m*3 17.9 C 0 km/h
717 27-05-2003 23:44:01 17.7 C 9.81 g/m*3 17.7 C 0 km/h
718 27-05-2003 23:54:01 17.6 C 10.05 g/m*3 17.6 C 0 km/h
719 28-05-2003 00:04:01 17.5 C 9.99 g/m*3 17.5 C 0 km/h
720 28-05-2003 00:14:01 17.2 C 9.81 g/m*3 17.2 C 0 km/h
721 28-05-2003 00:24:01 17.2 C 9.67 g/m*3 17.2 C 0 km/h
722 28-05-2003 00:34:01 17.1 C 9.61 g/m*3 17.1 C 0 km/h
723 28-05-2003 00:44:01 17.1 C 9.46 g/m*3 17.1 C 0 km/h
724 28-05-2003 00:54:01 16.8 C 9.58 g/m*3 16.8 C 0 km/h
725 28-05-2003 01:04:01 16.7 C 9.52 g/m*3 16.7 C 0 km/h
Sensor: Nr:Datum:Temp:Abs-Feuchte:Windchill:Wind:
Aussen-T/F 726 28-05-2003 01:14:01 16.5 C 9.41 g/m*3 16.5 C 0 km/h
727 28-05-2003 01:24:01 16.3 C 9.43 g/m*3 16.3 C 0 km/h
728 28-05-2003 01:34:01 16 C 9.26 g/m*3 16 C 0 km/h
729 28-05-2003 01:44:01 15.7 C 9.23 g/m*3 15.7 C 0 km/h
730 28-05-2003 01:54:01 15.4 C 9.2 g/m*3 15.4 C 0 km/h
731 28-05-2003 02:04:01 15.2 C 9.09 g/m*3 15.2 C 0 km/h
732 28-05-2003 02:14:01 15 C 9.1 g/m*3 15 C 0 km/h
733 28-05-2003 02:24:01 14.9 C 9.18 g/m*3 14.9 C 0 km/h
734 28-05-2003 02:34:01 14.7 C 9.07 g/m*3 14.7 C 0 km/h
735 28-05-2003 02:44:01 14.6 C 9.13 g/m*3 14.6 C 0 km/h
736 28-05-2003 02:54:01 14.6 C 9.13 g/m*3 14.6 C 0 km/h
737 28-05-2003 03:04:01 14.5 C 9.08 g/m*3 14.5 C 0 km/h
738 28-05-2003 03:14:01 14.3 C 9.21 g/m*3 14.3 C 0 km/h
739 28-05-2003 03:24:01 14 C 9.05 g/m*3 14 C 0 km/h
740 28-05-2003 03:34:01 13.9 C 9.11 g/m*3 13.9 C 0 km/h
741 28-05-2003 03:44:01 13.6 C 9.18 g/m*3 13.6 C 0 km/h
742 28-05-2003 03:54:01 13.5 C 9.01 g/m*3 13.5 C 0 km/h
743 28-05-2003 04:04:01 13.3 C 9.01 g/m*3 13.3 C 0 km/h
744 28-05-2003 04:14:01 13.2 C 9.07 g/m*3 13.2 C 0 km/h
745 28-05-2003 04:24:01 13.1 C 9.13 g/m*3 13.1 C 0 km/h
746 28-05-2003 04:34:01 13 C 9.07 g/m*3 13 C 0 km/h
747 28-05-2003 04:44:01 13 C 9.19 g/m*3 13 C 0 km/h
748 28-05-2003 04:54:01 12.9 C 9.24 g/m*3 12.9 C 0 km/h
749 28-05-2003 05:04:01 12.7 C 9.13 g/m*3 12.7 C 0 km/h
750 28-05-2003 05:14:01 12.7 C 9.24 g/m*3 12.7 C 0 km/h
Sensor: Nr:Datum:Temp:Abs-Feuchte:Windchill:Wind:
Aussen-T/F 751 28-05-2003 05:24:01 12.7 C 9.35 g/m*3 12.7 C 0 km/h
752 28-05-2003 05:34:01 12.5 C 9.24 g/m*3 12.5 C 0 km/h
753 28-05-2003 05:44:01 12.5 C 9.13 g/m*3 12.5 C 0 km/h
754 28-05-2003 05:54:01 12.5 C 9.13 g/m*3 12.5 C 0 km/h
755 28-05-2003 06:04:01 12.6 C 9.29 g/m*3 12.6 C 0 km/h
756 28-05-2003 06:14:01 12.7 C 9.35 g/m*3 12.7 C 0 km/h
757 28-05-2003 06:24:01 12.7 C 9.24 g/m*3 12.7 C 0 km/h
758 28-05-2003 06:34:01 12.7 C 9.24 g/m*3 12.7 C 0 km/h
759 28-05-2003 06:44:01 12.7 C 9.35 g/m*3 12.7 C 0 km/h
760 28-05-2003 06:54:01 13.1 C 9.47 g/m*3 13.1 C 0 km/h
761 28-05-2003 07:04:01 13.2 C 9.42 g/m*3 13.2 C 0 km/h
762 28-05-2003 07:14:01 13.4 C 9.42 g/m*3 13.4 C 0 km/h
763 28-05-2003 07:24:01 13.7 C 9.59 g/m*3 13.7 C 0 km/h
764 28-05-2003 07:34:01 13.8 C 9.41 g/m*3 13.8 C 0 km/h
765 28-05-2003 07:44:01 14 C 9.53 g/m*3 14 C 0 km/h
766 28-05-2003 07:54:01 14.3 C 9.58 g/m*3 14.3 C 0 km/h
767 28-05-2003 08:04:01 14.3 C 9.46 g/m*3 14.3 C 0 km/h
768 28-05-2003 08:14:01 14.3 C 9.58 g/m*3 14.3 C 0 km/h
769 28-05-2003 08:24:01 14.6 C 9.64 g/m*3 14.6 C 0 km/h
770 28-05-2003 08:34:01 14.8 C 9.63 g/m*3 14.8 C 0 km/h
771 28-05-2003 08:44:01 15 C 9.49 g/m*3 15 C 0 km/h
772 28-05-2003 08:54:01 15.2 C 9.48 g/m*3 15.2 C 0 km/h
773 28-05-2003 09:04:01 15.5 C 9.78 g/m*3 15.5 C 0 km/h
774 28-05-2003 09:14:01 15.6 C 9.84 g/m*3 15.6 C 0 km/h
775 28-05-2003 09:34:01 16.2 C 9.79 g/m*3 16.2 C 0 km/h
Sensor: Nr:Datum:Temp:Abs-Feuchte:Windchill:Wind:
Aussen-T/F 776 28-05-2003 09:44:01 16.6 C 9.89 g/m*3 16.6 C 0 km/h
777 28-05-2003 09:54:01 17.4 C 9.93 g/m*3 17.4 C 0 km/h
778 28-05-2003 10:04:01 17.8 C 9.87 g/m*3 17.8 C 0 km/h
779 28-05-2003 10:14:01 19 C 9.78 g/m*3 19 C 0 km/h
780 28-05-2003 10:24:01 19.6 C 9.79 g/m*3 19.6 C 0 km/h
781 28-05-2003 10:34:02 20 C 9.85 g/m*3 20 C 0 km/h
782 28-05-2003 10:44:02 20.4 C 9.73 g/m*3 20.4 C 0 km/h
783 28-05-2003 10:54:02 21.3 C 9.51 g/m*3 21.3 C 0 km/h
784 28-05-2003 11:04:02 21.6 C 9.86 g/m*3 21.6 C 0 km/h
785 28-05-2003 11:14:02 21.9 C 9.84 g/m*3 21.9 C 0 km/h
786 28-05-2003 11:24:02 22.4 C 9.93 g/m*3 22.4 C 0 km/h
787 28-05-2003 11:34:00 22.9 C 10.01 g/m*3 22.9 C 0 km/h
788 28-05-2003 11:44:00 23.1 C 9.72 g/m*3 23.1 C 0 km/h
789 28-05-2003 11:54:00 23.8 C 9.9 g/m*3 23.8 C 0 km/h
790 28-05-2003 12:04:01 24.2 C 9.24 g/m*3 24.2 C 0 km/h
791 28-05-2003 12:14:01 24.4 C 9.35 g/m*3 24.4 C 0 km/h
792 28-05-2003 12:24:01 24.7 C 9.51 g/m*3 24.7 C 0 km/h
793 28-05-2003 12:34:01 24.7 C 9.73 g/m*3 24.7 C 0 km/h
794 28-05-2003 12:44:01 25.6 C 8.81 g/m*3 25.6 C 0 km/h
795 28-05-2003 12:54:01 26.3 C 8.91 g/m*3 26.3 C 0 km/h
796 28-05-2003 13:04:01 26.2 C 9.35 g/m*3 26.2 C 0 km/h
797 28-05-2003 13:14:01 28 C 8.7 g/m*3 28 C 0 km/h
798 28-05-2003 13:24:01 27.4 C 8.68 g/m*3 27.4 C 0 km/h
799 28-05-2003 13:34:01 27.9 C 9.47 g/m*3 27.9 C 0 km/h
800 28-05-2003 13:44:01 27.5 C 9 g/m*3 27.5 C 0 km/h
Sensor: Nr:Datum:Temp:Abs-Feuchte:Windchill:Wind:
Aussen-T/F 801 28-05-2003 13:54:01 26.5 C 9.01 g/m*3 26.5 C 0 km/h
802 28-05-2003 14:04:02 26.1 C 9.3 g/m*3 26.1 C 0 km/h
803 28-05-2003 14:14:02 26.1 C 9.3 g/m*3 26.1 C 0 km/h
804 28-05-2003 14:24:02 26.6 C 9.06 g/m*3 26.6 C 0 km/h
805 28-05-2003 14:34:02 27.3 C 9.42 g/m*3 27.3 C 0 km/h
806 28-05-2003 14:44:02 27.3 C 9.42 g/m*3 27.3 C 0 km/h
807 28-05-2003 14:54:02 27.4 C 9.21 g/m*3 27.4 C 0 km/h
808 28-05-2003 15:04:01 26.7 C 9.37 g/m*3 26.7 C 0 km/h
809 28-05-2003 15:14:01 27.5 C 9.52 g/m*3 27.5 C 0 km/h
810 28-05-2003 15:24:01 27.5 C 9.52 g/m*3 27.5 C 0 km/h
811 28-05-2003 15:34:01 26.9 C 9.21 g/m*3 26.9 C 0 km/h
812 28-05-2003 15:44:01 26.9 C 9.47 g/m*3 26.9 C 0 km/h
813 28-05-2003 15:54:01 27.5 C 9.26 g/m*3 27.5 C 0 km/h
814 28-05-2003 16:04:01 27 C 9.52 g/m*3 27 C 0 km/h
815 28-05-2003 16:14:01 26.9 C 9.47 g/m*3 26.9 C 0 km/h
816 28-05-2003 16:24:01 27.4 C 9.21 g/m*3 27.4 C 0 km/h
817 28-05-2003 16:34:00 27.5 C 9.26 g/m*3 27.5 C 0 km/h
818 28-05-2003 16:44:00 27.4 C 9.21 g/m*3 27.4 C 0 km/h
819 28-05-2003 16:54:00 27.7 C 9.09 g/m*3 27.7 C 0 km/h
820 28-05-2003 17:04:01 29.2 C 9 g/m*3 29.2 C 0 km/h
821 28-05-2003 17:14:01 29.6 C 9.2 g/m*3 29.6 C 0 km/h
822 28-05-2003 17:24:01 28.8 C 9.09 g/m*3 28.8 C 0 km/h
823 28-05-2003 17:34:01 29.1 C 8.95 g/m*3 29.1 C 0 km/h
824 28-05-2003 17:44:01 29.4 C 9.1 g/m*3 29.4 C 0 km/h
825 28-05-2003 17:54:01 27.3 C 8.9 g/m*3 27.3 C 0 km/h
Sensor: Nr:Datum:Temp:Abs-Feuchte:Windchill:Wind:
Aussen-T/F 826 28-05-2003 18:04:01 26.9 C 10.24 g/m*3 26.9 C 0 km/h
827 28-05-2003 18:14:01 28.2 C 9.07 g/m*3 28.2 C 0 km/h
828 28-05-2003 18:24:01 27.6 C 9.58 g/m*3 27.6 C 0 km/h
829 28-05-2003 18:34:01 28.3 C 9.68 g/m*3 28.3 C 0 km/h
830 28-05-2003 18:44:01 28.9 C 8.86 g/m*3 28.9 C 0 km/h
831 28-05-2003 18:54:01 28.9 C 8.86 g/m*3 28.9 C 0 km/h
832 28-05-2003 19:04:02 27.8 C 9.15 g/m*3 27.8 C 0 km/h
833 28-05-2003 19:14:02 26.8 C 9.16 g/m*3 26.8 C 0 km/h
834 28-05-2003 19:24:02 26.9 C 9.21 g/m*3 26.9 C 0 km/h
835 28-05-2003 19:34:01 27 C 9.01 g/m*3 27 C 0 km/h
836 28-05-2003 19:44:01 26.8 C 9.16 g/m*3 26.8 C 0 km/h
837 28-05-2003 19:54:01 26.2 C 9.11 g/m*3 26.2 C 0 km/h
838 28-05-2003 20:04:01 25.2 C 9.54 g/m*3 25.2 C 0 km/h
839 28-05-2003 20:14:01 25.1 C 9.49 g/m*3 25.1 C 0 km/h
840 28-05-2003 20:24:01 25.5 C 9.71 g/m*3 25.5 C 0 km/h
841 28-05-2003 20:34:01 25 C 9.67 g/m*3 25 C 0 km/h
842 28-05-2003 20:44:01 24.4 C 9.57 g/m*3 24.4 C 0 km/h
843 28-05-2003 20:54:01 24 C 9.57 g/m*3 24 C 0 km/h
844 28-05-2003 21:04:01 23.7 C 9.63 g/m*3 23.7 C 0 km/h
845 28-05-2003 21:14:01 23.1 C 9.51 g/m*3 23.1 C 0 km/h
846 28-05-2003 21:24:01 22.8 C 9.75 g/m*3 22.8 C 0 km/h
847 28-05-2003 21:34:01 22.6 C 9.64 g/m*3 22.6 C 0 km/h
848 28-05-2003 21:44:01 22.3 C 9.48 g/m*3 22.3 C 0 km/h
849 28-05-2003 21:54:01 22.2 C 9.62 g/m*3 22.2 C 0 km/h
850 28-05-2003 22:05:01 21.8 C 9.78 g/m*3 21.8 C 0 km/h
Sensor: Nr:Datum:Temp:Abs-Feuchte:Windchill:Wind:
Aussen-T/F 851 28-05-2003 22:15:01 21.5 C 9.81 g/m*3 21.5 C 0 km/h
852 28-05-2003 22:25:01 21.3 C 9.88 g/m*3 21.3 C 0 km/h
853 28-05-2003 22:35:01 21 C 9.53 g/m*3 21 C 0 km/h
854 28-05-2003 22:45:01 20.8 C 9.6 g/m*3 20.8 C 0 km/h
855 28-05-2003 22:55:01 20.3 C 9.5 g/m*3 20.3 C 0 km/h
856 28-05-2003 23:05:01 20.1 C 9.04 g/m*3 20.1 C 0 km/h
857 28-05-2003 23:15:01 20.1 C 8.52 g/m*3 20.1 C 0 km/h
858 28-05-2003 23:25:01 19.9 C 8.59 g/m*3 19.9 C 0 km/h
859 28-05-2003 23:35:01 19.9 C 8.59 g/m*3 19.9 C 0 km/h
860 28-05-2003 23:45:01 19.7 C 8.66 g/m*3 19.7 C 0 km/h
861 28-05-2003 23:55:01 19.4 C 8.51 g/m*3 19.4 C 0 km/h
862 29-05-2003 00:05:01 19.3 C 8.46 g/m*3 19.3 C 0 km/h
863 29-05-2003 00:15:01 18.9 C 8.59 g/m*3 18.9 C 0 km/h
864 29-05-2003 00:25:01 18.8 C 8.54 g/m*3 18.8 C 0 km/h
865 29-05-2003 00:35:01 18.6 C 8.28 g/m*3 18.6 C 0 km/h
866 29-05-2003 00:45:01 18.5 C 8.23 g/m*3 18.5 C 0 km/h
867 29-05-2003 00:55:01 18.5 C 8.23 g/m*3 18.5 C 0 km/h
868 29-05-2003 01:05:01 18.5 C 8.39 g/m*3 18.5 C 0 km/h
869 29-05-2003 01:15:01 18.3 C 8.13 g/m*3 18.3 C 0 km/h
870 29-05-2003 01:25:01 18.3 C 8.29 g/m*3 18.3 C 0 km/h
871 29-05-2003 01:35:01 18.1 C 8.34 g/m*3 18.1 C 0 km/h
872 29-05-2003 01:45:01 17.8 C 8.5 g/m*3 17.8 C 0 km/h
873 29-05-2003 01:55:01 17.5 C 8.35 g/m*3 17.5 C 0 km/h
874 29-05-2003 02:05:01 17 C 8.39 g/m*3 17 C 0 km/h
875 29-05-2003 02:15:01 16.9 C 8.63 g/m*3 16.9 C 0 km/h
Sensor: Nr:Datum:Temp:Abs-Feuchte:Windchill:Wind:
Aussen-T/F 876 29-05-2003 02:25:01 16.6 C 8.62 g/m*3 16.6 C 0 km/h
877 29-05-2003 02:35:01 16.4 C 8.51 g/m*3 16.4 C 0 km/h
878 29-05-2003 02:45:01 16.2 C 8.41 g/m*3 16.2 C 0 km/h
879 29-05-2003 02:55:01 16 C 8.45 g/m*3 16 C 0 km/h
880 29-05-2003 03:05:01 16 C 8.45 g/m*3 16 C 0 km/h
881 29-05-2003 03:15:01 15.8 C 8.48 g/m*3 15.8 C 0 km/h
882 29-05-2003 03:25:01 15.7 C 8.56 g/m*3 15.7 C 0 km/h
883 29-05-2003 03:35:01 15.6 C 8.51 g/m*3 15.6 C 0 km/h
884 29-05-2003 03:45:01 15.5 C 8.72 g/m*3 15.5 C 0 km/h
885 29-05-2003 03:55:01 15.4 C 8.67 g/m*3 15.4 C 0 km/h
886 29-05-2003 04:05:01 15.2 C 8.7 g/m*3 15.2 C 0 km/h
887 29-05-2003 04:15:01 15 C 8.72 g/m*3 15 C 0 km/h
888 29-05-2003 04:25:01 14.9 C 8.79 g/m*3 14.9 C 0 km/h
889 29-05-2003 04:35:01 14.7 C 8.81 g/m*3 14.7 C 0 km/h
890 29-05-2003 04:45:01 14.7 C 8.81 g/m*3 14.7 C 0 km/h
891 29-05-2003 04:55:01 14.5 C 8.83 g/m*3 14.5 C 0 km/h
892 29-05-2003 05:05:01 14.5 C 8.83 g/m*3 14.5 C 0 km/h
893 29-05-2003 05:15:01 14.7 C 8.94 g/m*3 14.7 C 0 km/h
894 29-05-2003 05:25:01 14.7 C 8.94 g/m*3 14.7 C 0 km/h
895 29-05-2003 05:35:01 14.9 C 8.92 g/m*3 14.9 C 0 km/h
896 29-05-2003 05:45:01 14.8 C 8.99 g/m*3 14.8 C 0 km/h
897 29-05-2003 05:55:01 14.7 C 9.07 g/m*3 14.7 C 0 km/h
898 29-05-2003 06:05:01 14.5 C 8.95 g/m*3 14.5 C 0 km/h
899 29-05-2003 06:15:01 14.5 C 9.08 g/m*3 14.5 C 0 km/h
900 29-05-2003 06:25:01 14.4 C 9.02 g/m*3 14.4 C 0 km/h
Sensor: Nr:Datum:Temp:Abs-Feuchte:Windchill:Wind:
Aussen-T/F 901 29-05-2003 06:35:01 14.4 C 9.15 g/m*3 14.4 C 0 km/h
902 29-05-2003 06:45:01 14.4 C 9.15 g/m*3 14.4 C 0 km/h
903 29-05-2003 06:55:01 14.3 C 9.09 g/m*3 14.3 C 0 km/h
904 29-05-2003 07:05:01 14.5 C 9.33 g/m*3 14.5 C 0 km/h
905 29-05-2003 07:15:01 14.6 C 9.26 g/m*3 14.6 C 0 km/h
906 29-05-2003 07:25:01 14.6 C 9.26 g/m*3 14.6 C 0 km/h
907 29-05-2003 07:35:01 14.7 C 9.19 g/m*3 14.7 C 0 km/h
908 29-05-2003 07:45:01 14.8 C 9.25 g/m*3 14.8 C 0 km/h
909 29-05-2003 07:55:01 15.2 C 9.48 g/m*3 15.2 C 0 km/h
910 29-05-2003 08:05:01 15.4 C 9.46 g/m*3 15.4 C 0 km/h
911 29-05-2003 08:15:01 15.7 C 9.63 g/m*3 15.7 C 0 km/h
912 29-05-2003 08:25:01 16 C 9.4 g/m*3 16 C 0 km/h
913 29-05-2003 08:35:00 16.2 C 9.52 g/m*3 16.2 C 0 km/h
914 29-05-2003 08:45:00 16.6 C 9.61 g/m*3 16.6 C 0 km/h
915 29-05-2003 08:55:00 17 C 9.69 g/m*3 17 C 0 km/h
916 29-05-2003 09:05:00 17.5 C 9.69 g/m*3 17.5 C 0 km/h
917 29-05-2003 09:15:00 17.9 C 9.92 g/m*3 17.9 C 0 km/h
918 29-05-2003 09:25:00 18.3 C 9.85 g/m*3 18.3 C 0 km/h
919 29-05-2003 09:35:01 18.9 C 10.21 g/m*3 18.9 C 0 km/h
920 29-05-2003 09:45:01 19.3 C 9.79 g/m*3 19.3 C 0 km/h
921 29-05-2003 09:55:01 19.7 C 9.85 g/m*3 19.7 C 0 km/h
922 29-05-2003 10:05:01 20.4 C 9.73 g/m*3 20.4 C 0 km/h
923 29-05-2003 10:15:01 20.7 C 9.54 g/m*3 20.7 C 0 km/h
924 29-05-2003 10:25:01 21.4 C 10.31 g/m*3 21.4 C 0 km/h
925 29-05-2003 10:35:02 21.8 C 10.17 g/m*3 21.8 C 0 km/h
Sensor: Nr:Datum:Temp:Abs-Feuchte:Windchill:Wind:
Aussen-T/F 926 29-05-2003 10:45:02 22.1 C 9.76 g/m*3 22.1 C 0 km/h
927 29-05-2003 10:55:02 22.8 C 9.75 g/m*3 22.8 C 0 km/h
928 29-05-2003 11:05:02 23.3 C 9.62 g/m*3 23.3 C 0 km/h
929 29-05-2003 11:15:02 23.4 C 9.25 g/m*3 23.4 C 0 km/h
930 29-05-2003 11:25:02 24 C 9.14 g/m*3 24 C 0 km/h
931 29-05-2003 11:35:02 23.9 C 8.87 g/m*3 23.9 C 0 km/h
932 29-05-2003 11:45:02 24.6 C 9 g/m*3 24.6 C 0 km/h
933 29-05-2003 11:55:02 25.5 C 9 g/m*3 25.5 C 0 km/h
934 29-05-2003 12:05:01 26.1 C 8.57 g/m*3 26.1 C 0 km/h
935 29-05-2003 12:15:01 26.6 C 7.8 g/m*3 26.6 C 0 km/h
936 29-05-2003 12:25:01 27 C 7.98 g/m*3 27 C 0 km/h
937 29-05-2003 12:35:01 27.4 C 7.89 g/m*3 27.4 C 0 km/h
938 29-05-2003 12:45:01 27.9 C 8.11 g/m*3 27.9 C 0 km/h
939 29-05-2003 12:55:01 28.3 C 7.74 g/m*3 28.3 C 0 km/h
940 29-05-2003 13:05:02 28 C 7.61 g/m*3 28 C 0 km/h
941 29-05-2003 13:15:02 28.7 C 8.19 g/m*3 28.7 C 0 km/h
942 29-05-2003 13:25:02 29.6 C 8.31 g/m*3 29.6 C 0 km/h
943 29-05-2003 13:35:02 28.9 C 8.57 g/m*3 28.9 C 0 km/h
944 29-05-2003 13:45:02 29 C 8.62 g/m*3 29 C 0 km/h
945 29-05-2003 13:55:02 28 C 8.16 g/m*3 28 C 0 km/h
946 29-05-2003 14:05:02 28.2 C 9.07 g/m*3 28.2 C 0 km/h
947 29-05-2003 14:15:02 28.9 C 9.43 g/m*3 28.9 C 0 km/h
948 29-05-2003 14:25:02 28.6 C 8.71 g/m*3 28.6 C 0 km/h
949 29-05-2003 14:35:00 29.2 C 9 g/m*3 29.2 C 0 km/h
950 29-05-2003 14:45:00 28.8 C 9.09 g/m*3 28.8 C 0 km/h
Sensor: Nr:Datum:Temp:Abs-Feuchte:Windchill:Wind:
Aussen-T/F 951 29-05-2003 14:55:00 29.1 C 9.24 g/m*3 29.1 C 0 km/h
952 29-05-2003 15:05:01 28.4 C 9.17 g/m*3 28.4 C 0 km/h
953 29-05-2003 15:15:01 28.3 C 9.95 g/m*3 28.3 C 0 km/h
954 29-05-2003 15:25:01 27.9 C 10.01 g/m*3 27.9 C 0 km/h
955 29-05-2003 15:35:01 28.4 C 10.56 g/m*3 28.4 C 0 km/h
956 29-05-2003 15:45:01 28.8 C 10.51 g/m*3 28.8 C 0 km/h
957 29-05-2003 15:55:01 29.5 C 9.15 g/m*3 29.5 C 0 km/h
958 29-05-2003 16:05:00 30.6 C 9.4 g/m*3 30.6 C 0 km/h
959 29-05-2003 16:15:00 31 C 8.96 g/m*3 31 C 0 km/h
960 29-05-2003 16:25:00 30.9 C 9.23 g/m*3 30.9 C 0 km/h
961 29-05-2003 16:35:01 31.3 C 9.43 g/m*3 31.3 C 0 km/h
962 29-05-2003 16:45:01 31.1 C 10.94 g/m*3 31.1 C 0 km/h
963 29-05-2003 16:55:01 31.5 C 9.2 g/m*3 31.5 C 0 km/h
964 29-05-2003 17:05:01 32.1 C 8.82 g/m*3 32.1 C 0 km/h
965 29-05-2003 17:15:01 31.9 C 9.07 g/m*3 31.9 C 0 km/h
966 29-05-2003 17:25:01 31.4 C 9.15 g/m*3 31.4 C 0 km/h
967 29-05-2003 17:35:00 31.8 C 9.02 g/m*3 31.8 C 0 km/h
968 29-05-2003 17:45:00 31.8 C 9.02 g/m*3 31.8 C 0 km/h
969 29-05-2003 17:55:00 31.2 C 9.7 g/m*3 31.2 C 0 km/h
970 29-05-2003 18:05:01 30.8 C 11.08 g/m*3 30.8 C 0 km/h
971 29-05-2003 18:15:01 31.1 C 9.65 g/m*3 31.1 C 0 km/h
972 29-05-2003 18:25:01 31.3 C 9.43 g/m*3 31.3 C 0 km/h
973 29-05-2003 18:35:00 32 C 9.11 g/m*3 32 C 0 km/h
974 29-05-2003 18:45:00 31.9 C 9.4 g/m*3 31.9 C 0 km/h
975 29-05-2003 18:55:00 31.5 C 9.86 g/m*3 31.5 C 0 km/h
Sensor: Nr:Datum:Temp:Abs-Feuchte:Windchill:Wind:
Aussen-T/F 976 29-05-2003 19:05:00 30.9 C 9.87 g/m*3 30.9 C 0 km/h
977 29-05-2003 19:15:00 31.1 C 9.97 g/m*3 31.1 C 0 km/h
978 29-05-2003 19:25:00 30.9 C 10.19 g/m*3 30.9 C 0 km/h
979 29-05-2003 19:35:01 30.7 C 10.08 g/m*3 30.7 C 0 km/h
980 29-05-2003 19:45:01 30.4 C 11.47 g/m*3 30.4 C 0 km/h
981 29-05-2003 19:55:01 30.1 C 10.98 g/m*3 30.1 C 0 km/h
982 29-05-2003 20:05:00 29.8 C 10.8 g/m*3 29.8 C 0 km/h
983 29-05-2003 20:15:00 29.1 C 10.97 g/m*3 29.1 C 0 km/h
984 29-05-2003 20:25:00 28.6 C 10.96 g/m*3 28.6 C 0 km/h
985 29-05-2003 20:35:01 28 C 11.15 g/m*3 28 C 0 km/h
986 29-05-2003 20:45:01 27.4 C 11.05 g/m*3 27.4 C 0 km/h
987 29-05-2003 20:55:01 26.9 C 11.26 g/m*3 26.9 C 0 km/h
988 29-05-2003 21:05:01 26.2 C 11.08 g/m*3 26.2 C 0 km/h
989 29-05-2003 21:15:01 26.1 C 11.26 g/m*3 26.1 C 0 km/h
990 29-05-2003 21:25:01 25.6 C 11.43 g/m*3 25.6 C 0 km/h
991 29-05-2003 21:36:01 24.9 C 10.99 g/m*3 24.9 C 0 km/h
992 29-05-2003 21:46:01 24.7 C 11.09 g/m*3 24.7 C 0 km/h
993 29-05-2003 21:56:01 24.4 C 10.9 g/m*3 24.4 C 0 km/h
994 29-05-2003 22:06:01 24 C 10.66 g/m*3 24 C 0 km/h
995 29-05-2003 22:16:01 23.8 C 10.97 g/m*3 23.8 C 0 km/h
996 29-05-2003 22:26:01 23.5 C 11 g/m*3 23.5 C 0 km/h
997 29-05-2003 22:36:01 23.1 C 10.75 g/m*3 23.1 C 0 km/h
998 29-05-2003 22:46:01 22.9 C 11.24 g/m*3 22.9 C 0 km/h
999 29-05-2003 22:56:01 22.5 C 10.99 g/m*3 22.5 C 0 km/h
1000 29-05-2003 23:06:01 22.5 C 11.19 g/m*3 22.5 C 0 km/h
Sensor: Nr:Datum:Temp:Abs-Feuchte:Windchill:Wind:
Aussen-T/F 1001 29-05-2003 23:16:01 22.5 C 11.39 g/m*3 22.5 C 0 km/h
1002 29-05-2003 23:26:01 22.4 C 11.12 g/m*3 22.4 C 0 km/h
1003 29-05-2003 23:36:01 22.3 C 11.26 g/m*3 22.3 C 0 km/h
1004 29-05-2003 23:46:01 22.2 C 11.19 g/m*3 22.2 C 0 km/h
1005 29-05-2003 23:56:01 22.1 C 11.13 g/m*3 22.1 C 0 km/h
1006 30-05-2003 00:06:01 22 C 11.06 g/m*3 22 C 0 km/h
1007 30-05-2003 00:16:01 21.8 C 10.94 g/m*3 21.8 C 0 km/h
1008 30-05-2003 00:26:01 21.5 C 10.75 g/m*3 21.5 C 0 km/h
1009 30-05-2003 00:36:01 21.3 C 10.44 g/m*3 21.3 C 0 km/h
1010 30-05-2003 00:46:01 21.2 C 10.56 g/m*3 21.2 C 0 km/h
1011 30-05-2003 00:56:01 21.1 C 10.32 g/m*3 21.1 C 0 km/h
1012 30-05-2003 01:06:01 20.8 C 10.68 g/m*3 20.8 C 0 km/h
1013 30-05-2003 01:16:01 20.6 C 10.56 g/m*3 20.6 C 0 km/h
1014 30-05-2003 01:26:01 20.2 C 10.32 g/m*3 20.2 C 0 km/h
1015 30-05-2003 01:36:01 20.2 C 10.49 g/m*3 20.2 C 0 km/h
1016 30-05-2003 01:46:01 20.2 C 10.49 g/m*3 20.2 C 0 km/h
1017 30-05-2003 01:56:01 20.4 C 10.61 g/m*3 20.4 C 0 km/h
1018 30-05-2003 02:06:01 20.3 C 10.38 g/m*3 20.3 C 0 km/h
1019 30-05-2003 02:16:01 20.1 C 10.26 g/m*3 20.1 C 0 km/h
1020 30-05-2003 02:26:01 19.8 C 10.42 g/m*3 19.8 C 0 km/h
1021 30-05-2003 02:36:01 19.6 C 10.13 g/m*3 19.6 C 0 km/h
1022 30-05-2003 02:46:01 19.4 C 10.34 g/m*3 19.4 C 0 km/h
1023 30-05-2003 02:56:01 19.2 C 10.22 g/m*3 19.2 C 0 km/h
1024 30-05-2003 03:06:01 18.8 C 10.15 g/m*3 18.8 C 0 km/h
1025 30-05-2003 03:16:01 18.7 C 10.09 g/m*3 18.7 C 0 km/h
Sensor: Nr:Datum:Temp:Abs-Feuchte:Windchill:Wind:
Aussen-T/F 1026 30-05-2003 03:26:01 18.7 C 10.25 g/m*3 18.7 C 0 km/h
1027 30-05-2003 03:36:01 18.5 C 10.13 g/m*3 18.5 C 0 km/h
1028 30-05-2003 03:46:01 18.3 C 10.01 g/m*3 18.3 C 0 km/h
1029 30-05-2003 03:56:01 18.3 C 10.32 g/m*3 18.3 C 0 km/h
1030 30-05-2003 04:16:01 17.8 C 10.17 g/m*3 17.8 C 0 km/h
1031 30-05-2003 04:26:01 17.7 C 10.41 g/m*3 17.7 C 0 km/h
1032 30-05-2003 04:36:01 17.5 C 10.44 g/m*3 17.5 C 0 km/h
1033 30-05-2003 04:46:01 17.4 C 10.37 g/m*3 17.4 C 0 km/h
1034 30-05-2003 04:56:01 17.5 C 10.29 g/m*3 17.5 C 0 km/h
1035 30-05-2003 05:06:01 17.5 C 10.29 g/m*3 17.5 C 0 km/h
1036 30-05-2003 05:16:01 17.3 C 10.16 g/m*3 17.3 C 0 km/h
1037 30-05-2003 05:26:01 17.5 C 10.44 g/m*3 17.5 C 0 km/h
1038 30-05-2003 05:36:01 17.3 C 10.31 g/m*3 17.3 C 0 km/h
1039 30-05-2003 05:46:01 17.1 C 10.34 g/m*3 17.1 C 0 km/h
1040 30-05-2003 05:56:01 17 C 10.27 g/m*3 17 C 0 km/h
1041 30-05-2003 06:06:01 17 C 10.42 g/m*3 17 C 0 km/h
1042 30-05-2003 06:16:01 17 C 10.42 g/m*3 17 C 0 km/h
1043 30-05-2003 06:26:01 17.1 C 10.63 g/m*3 17.1 C 0 km/h
1044 30-05-2003 06:36:01 17.2 C 10.54 g/m*3 17.2 C 0 km/h
1045 30-05-2003 06:46:01 17.4 C 10.82 g/m*3 17.4 C 0 km/h
1046 30-05-2003 06:56:01 17.5 C 10.73 g/m*3 17.5 C 0 km/h
1047 30-05-2003 07:06:01 17.9 C 10.84 g/m*3 17.9 C 0 km/h
1048 30-05-2003 07:16:01 18.5 C 10.92 g/m*3 18.5 C 0 km/h
1049 30-05-2003 07:26:01 18.9 C 11.02 g/m*3 18.9 C 0 km/h
1050 30-05-2003 07:36:01 19.1 C 10.98 g/m*3 19.1 C 0 km/h
Sensor: Nr:Datum:Temp:Abs-Feuchte:Windchill:Wind:
Aussen-T/F 1051 30-05-2003 07:46:01 19.5 C 10.74 g/m*3 19.5 C 0 km/h
1052 30-05-2003 07:56:01 19.8 C 10.76 g/m*3 19.8 C 0 km/h
1053 30-05-2003 08:06:00 20.2 C 10.84 g/m*3 20.2 C 0 km/h
1054 30-05-2003 08:16:00 20.5 C 11.03 g/m*3 20.5 C 0 km/h
1055 30-05-2003 08:26:00 20.8 C 11.23 g/m*3 20.8 C 0 km/h
1056 30-05-2003 08:36:00 21.2 C 10.93 g/m*3 21.2 C 0 km/h
1057 30-05-2003 08:46:00 21.6 C 11 g/m*3 21.6 C 0 km/h
1058 30-05-2003 08:56:00 22 C 11.26 g/m*3 22 C 0 km/h
1059 30-05-2003 09:06:01 22.5 C 10.79 g/m*3 22.5 C 0 km/h
1060 30-05-2003 09:16:01 22.8 C 10.97 g/m*3 22.8 C 0 km/h
1061 30-05-2003 09:26:01 23.1 C 10.96 g/m*3 23.1 C 0 km/h
1062 30-05-2003 09:36:00 23.5 C 10.79 g/m*3 23.5 C 0 km/h
1063 30-05-2003 09:46:00 23.9 C 10.82 g/m*3 23.9 C 0 km/h
1064 30-05-2003 09:56:00 23.9 C 10.6 g/m*3 23.9 C 0 km/h
1065 30-05-2003 10:06:01 24.4 C 10.9 g/m*3 24.4 C 0 km/h
1066 30-05-2003 10:16:01 25.1 C 10.65 g/m*3 25.1 C 0 km/h
1067 30-05-2003 10:26:01 25.2 C 10.71 g/m*3 25.2 C 0 km/h
1068 30-05-2003 10:36:01 24.8 C 10.7 g/m*3 24.8 C 0 km/h
1069 30-05-2003 10:46:01 25.6 C 11.67 g/m*3 25.6 C 0 km/h
1070 30-05-2003 10:56:01 25.9 C 11.38 g/m*3 25.9 C 0 km/h
1071 30-05-2003 11:06:01 26.3 C 11.39 g/m*3 26.3 C 0 km/h
1072 30-05-2003 11:16:01 26.3 C 11.14 g/m*3 26.3 C 0 km/h
1073 30-05-2003 11:26:01 26.7 C 11.64 g/m*3 26.7 C 0 km/h
1074 30-05-2003 11:36:00 27.2 C 11.45 g/m*3 27.2 C 0 km/h
1075 30-05-2003 11:46:00 27.5 C 11.38 g/m*3 27.5 C 0 km/h
Sensor: Nr:Datum:Temp:Abs-Feuchte:Windchill:Wind:
Aussen-T/F 1076 30-05-2003 11:56:00 28.4 C 11.4 g/m*3 28.4 C 0 km/h
1077 30-05-2003 12:06:01 28.4 C 10.84 g/m*3 28.4 C 0 km/h
1078 30-05-2003 12:16:01 29.1 C 10.69 g/m*3 29.1 C 0 km/h
1079 30-05-2003 12:26:01 29.8 C 11.4 g/m*3 29.8 C 0 km/h
1080 30-05-2003 12:36:01 30.2 C 11.04 g/m*3 30.2 C 0 km/h
1081 30-05-2003 12:46:01 30.4 C 10.85 g/m*3 30.4 C 0 km/h
1082 30-05-2003 12:56:01 30.7 C 10.39 g/m*3 30.7 C 0 km/h
1083 30-05-2003 13:06:00 30.7 C 10.08 g/m*3 30.7 C 0 km/h
1084 30-05-2003 13:16:00 31.3 C 9.76 g/m*3 31.3 C 0 km/h
1085 30-05-2003 13:26:00 31.3 C 9.76 g/m*3 31.3 C 0 km/h
1086 30-05-2003 13:36:01 31.5 C 10.52 g/m*3 31.5 C 0 km/h
1087 30-05-2003 13:46:01 31.6 C 9.25 g/m*3 31.6 C 0 km/h
1088 30-05-2003 13:56:01 31.6 C 9.58 g/m*3 31.6 C 0 km/h
1089 30-05-2003 14:06:01 31.5 C 9.2 g/m*3 31.5 C 0 km/h
1090 30-05-2003 14:16:01 31.4 C 10.14 g/m*3 31.4 C 0 km/h
1091 30-05-2003 14:26:01 31.1 C 9.65 g/m*3 31.1 C 0 km/h
1092 30-05-2003 14:36:01 31 C 10.56 g/m*3 31 C 0 km/h
1093 30-05-2003 14:46:01 31.4 C 10.79 g/m*3 31.4 C 0 km/h
1094 30-05-2003 14:56:01 31.5 C 10.52 g/m*3 31.5 C 0 km/h
1095 30-05-2003 15:06:01 31.4 C 11.12 g/m*3 31.4 C 0 km/h
1096 30-05-2003 15:16:01 31.4 C 10.46 g/m*3 31.4 C 0 km/h
1097 30-05-2003 15:26:01 31.3 C 11.38 g/m*3 31.3 C 0 km/h
1098 30-05-2003 15:36:01 31.9 C 9.74 g/m*3 31.9 C 0 km/h
1099 30-05-2003 15:46:01 32.4 C 9.31 g/m*3 32.4 C 0 km/h
1100 30-05-2003 15:56:01 32.7 C 9.46 g/m*3 32.7 C 0 km/h
Sensor: Nr:Datum:Temp:Abs-Feuchte:Windchill:Wind:
Aussen-T/F 1101 30-05-2003 16:06:01 32.9 C 9.56 g/m*3 32.9 C 0 km/h
1102 30-05-2003 16:16:01 33.1 C 9.66 g/m*3 33.1 C 0 km/h
1103 30-05-2003 16:26:01 33.3 C 9.04 g/m*3 33.3 C 0 km/h
1104 30-05-2003 16:36:01 33.3 C 9.04 g/m*3 33.3 C 0 km/h
1105 30-05-2003 16:46:01 32.5 C 10.4 g/m*3 32.5 C 0 km/h
1106 30-05-2003 16:56:01 31.8 C 11.02 g/m*3 31.8 C 0 km/h
1107 30-05-2003 17:26:01 30.3 C 12.02 g/m*3 30.3 C 0 km/h
1108 30-05-2003 17:56:01 27.7 C 12.3 g/m*3 27.7 C 0 km/h
1109 30-05-2003 18:06:01 25.9 C 12.59 g/m*3 25.9 C 0 km/h
1110 30-05-2003 18:16:01 24.7 C 12 g/m*3 24.7 C 0 km/h
1111 30-05-2003 18:26:01 21.7 C 12.4 g/m*3 21.7 C 0 km/h
1112 30-05-2003 18:36:00 21.7 C 12.78 g/m*3 21.7 C 0 km/h
1113 30-05-2003 18:46:00 21.9 C 12.54 g/m*3 21.9 C 0 km/h
1114 30-05-2003 18:56:00 22.2 C 12.57 g/m*3 22.2 C 0 km/h
1115 30-05-2003 19:06:01 22.4 C 12.31 g/m*3 22.4 C 0 km/h
1116 30-05-2003 19:16:01 23.3 C 12.55 g/m*3 23.3 C 0 km/h
1117 30-05-2003 19:26:01 24.9 C 12.13 g/m*3 24.9 C 0 km/h
1118 30-05-2003 19:36:02 25.3 C 12.17 g/m*3 25.3 C 0 km/h
1119 30-05-2003 19:46:02 25.7 C 12.45 g/m*3 25.7 C 0 km/h
1120 30-05-2003 19:56:02 25.3 C 12.64 g/m*3 25.3 C 0 km/h
1121 30-05-2003 20:06:02 25.3 C 12.64 g/m*3 25.3 C 0 km/h
1122 30-05-2003 20:16:02 24.9 C 13.28 g/m*3 24.9 C 0 km/h
1123 30-05-2003 20:26:02 24.2 C 12.76 g/m*3 24.2 C 0 km/h
1124 30-05-2003 20:36:01 23.7 C 12.83 g/m*3 23.7 C 0 km/h
1125 30-05-2003 20:46:01 23.5 C 12.69 g/m*3 23.5 C 0 km/h
Sensor: Nr:Datum:Temp:Abs-Feuchte:Windchill:Wind:
Aussen-T/F 1126 30-05-2003 20:56:01 23.3 C 12.75 g/m*3 23.3 C 0 km/h
1127 30-05-2003 21:06:02 23.2 C 12.68 g/m*3 23.2 C 0 km/h
1128 30-05-2003 21:16:02 23.1 C 12.82 g/m*3 23.1 C 0 km/h
1129 30-05-2003 21:26:02 22.8 C 12.8 g/m*3 22.8 C 0 km/h
1130 30-05-2003 21:37:00 22.6 C 12.66 g/m*3 22.6 C 0 km/h
1131 30-05-2003 21:47:00 22.5 C 12.58 g/m*3 22.5 C 0 km/h
1132 30-05-2003 21:57:00 22.4 C 12.51 g/m*3 22.4 C 0 km/h
1133 30-05-2003 22:07:00 22.5 C 12.58 g/m*3 22.5 C 0 km/h
1134 30-05-2003 22:17:00 22.4 C 12.51 g/m*3 22.4 C 0 km/h
1135 30-05-2003 22:27:00 22 C 12.62 g/m*3 22 C 0 km/h
1136 30-05-2003 22:37:00 21.9 C 12.93 g/m*3 21.9 C 0 km/h
1137 30-05-2003 22:47:00 21.8 C 13.05 g/m*3 21.8 C 0 km/h
1138 30-05-2003 22:57:00 21.6 C 13.09 g/m*3 21.6 C 0 km/h
1139 30-05-2003 23:07:00 21.6 C 13.09 g/m*3 21.6 C 0 km/h
1140 30-05-2003 23:17:00 21.4 C 12.75 g/m*3 21.4 C 0 km/h
1141 30-05-2003 23:27:00 21.3 C 12.68 g/m*3 21.3 C 0 km/h
1142 30-05-2003 23:37:00 21.4 C 12.75 g/m*3 21.4 C 0 km/h
1143 30-05-2003 23:47:00 21.3 C 12.68 g/m*3 21.3 C 0 km/h
1144 30-05-2003 23:57:00 21.1 C 12.71 g/m*3 21.1 C 0 km/h
1145 31-05-2003 00:07:00 21 C 12.64 g/m*3 21 C 0 km/h
1146 31-05-2003 00:17:00 20.7 C 12.78 g/m*3 20.7 C 0 km/h
1147 31-05-2003 00:27:00 20.2 C 12.94 g/m*3 20.2 C 0 km/h
1148 31-05-2003 00:37:00 20 C 12.96 g/m*3 20 C 0 km/h
1149 31-05-2003 00:47:00 19.9 C 13.06 g/m*3 19.9 C 0 km/h
1150 31-05-2003 00:57:00 19.8 C 12.98 g/m*3 19.8 C 0 km/h
Sensor: Nr:Datum:Temp:Abs-Feuchte:Windchill:Wind:
Aussen-T/F 1151 31-05-2003 01:07:00 19.8 C 12.81 g/m*3 19.8 C 0 km/h
1152 31-05-2003 01:17:00 19.7 C 12.74 g/m*3 19.7 C 0 km/h
1153 31-05-2003 01:27:00 19.5 C 12.59 g/m*3 19.5 C 0 km/h
1154 31-05-2003 01:37:00 19.5 C 12.75 g/m*3 19.5 C 0 km/h
1155 31-05-2003 01:47:00 19.3 C 12.61 g/m*3 19.3 C 0 km/h
1156 31-05-2003 01:57:00 19.3 C 12.61 g/m*3 19.3 C 0 km/h
1157 31-05-2003 02:07:00 19 C 12.39 g/m*3 19 C 0 km/h
1158 31-05-2003 02:17:00 18.9 C 12.64 g/m*3 18.9 C 0 km/h
1159 31-05-2003 02:27:00 18.9 C 12.64 g/m*3 18.9 C 0 km/h
1160 31-05-2003 02:37:00 18.8 C 12.56 g/m*3 18.8 C 0 km/h
1161 31-05-2003 02:47:00 18.8 C 12.56 g/m*3 18.8 C 0 km/h
1162 31-05-2003 02:57:00 18.5 C 12.5 g/m*3 18.5 C 0 km/h
1163 31-05-2003 03:07:00 18.3 C 12.35 g/m*3 18.3 C 0 km/h
1164 31-05-2003 03:17:00 18.2 C 12.43 g/m*3 18.2 C 0 km/h
1165 31-05-2003 03:27:00 18.2 C 12.43 g/m*3 18.2 C 0 km/h
1166 31-05-2003 03:37:00 18 C 12.75 g/m*3 18 C 0 km/h
1167 31-05-2003 03:47:00 17.9 C 12.67 g/m*3 17.9 C 0 km/h
1168 31-05-2003 03:57:00 17.9 C 12.67 g/m*3 17.9 C 0 km/h
1169 31-05-2003 04:07:00 17.7 C 12.52 g/m*3 17.7 C 0 km/h
1170 31-05-2003 04:17:00 17.7 C 12.52 g/m*3 17.7 C 0 km/h
1171 31-05-2003 04:27:00 17.6 C 12.6 g/m*3 17.6 C 0 km/h
1172 31-05-2003 04:37:00 17.4 C 12.3 g/m*3 17.4 C 0 km/h
1173 31-05-2003 04:47:00 17.4 C 12.45 g/m*3 17.4 C 0 km/h
1174 31-05-2003 04:57:00 17 C 12.3 g/m*3 17 C 0 km/h
1175 31-05-2003 05:07:00 16.9 C 12.37 g/m*3 16.9 C 0 km/h
Sensor: Nr:Datum:Temp:Abs-Feuchte:Windchill:Wind:
Aussen-T/F 1176 31-05-2003 05:17:00 16.7 C 12.22 g/m*3 16.7 C 0 km/h
1177 31-05-2003 05:27:00 16.6 C 12.43 g/m*3 16.6 C 0 km/h
1178 31-05-2003 05:37:00 16.6 C 12.57 g/m*3 16.6 C 0 km/h
1179 31-05-2003 05:47:00 16.6 C 12.43 g/m*3 16.6 C 0 km/h
1180 31-05-2003 05:57:00 16.6 C 12.43 g/m*3 16.6 C 0 km/h
1181 31-05-2003 06:07:00 16.6 C 12.43 g/m*3 16.6 C 0 km/h
1182 31-05-2003 06:17:00 16.6 C 12.57 g/m*3 16.6 C 0 km/h
1183 31-05-2003 06:27:00 17 C 12.73 g/m*3 17 C 0 km/h
1184 31-05-2003 06:37:00 17.5 C 12.82 g/m*3 17.5 C 0 km/h
1185 31-05-2003 06:47:00 17.6 C 12.6 g/m*3 17.6 C 0 km/h
1186 31-05-2003 06:57:00 17.5 C 12.52 g/m*3 17.5 C 0 km/h
1187 31-05-2003 07:07:00 16.9 C 12.51 g/m*3 16.9 C 0 km/h
1188 31-05-2003 07:17:00 16.8 C 12.58 g/m*3 16.8 C 0 km/h
1189 31-05-2003 07:27:00 16.8 C 12.58 g/m*3 16.8 C 0 km/h
1190 31-05-2003 07:37:00 17.4 C 12.75 g/m*3 17.4 C 0 km/h
1191 31-05-2003 07:47:00 17.6 C 12.75 g/m*3 17.6 C 0 km/h
1192 31-05-2003 07:57:00 17.3 C 12.52 g/m*3 17.3 C 0 km/h
1193 31-05-2003 08:07:00 17.6 C 12.6 g/m*3 17.6 C 0 km/h
1194 31-05-2003 08:17:00 18.2 C 12.75 g/m*3 18.2 C 0 km/h
1195 31-05-2003 08:27:00 18.9 C 12.96 g/m*3 18.9 C 0 km/h
1196 31-05-2003 08:37:00 19.3 C 12.77 g/m*3 19.3 C 0 km/h
1197 31-05-2003 08:47:00 20 C 12.79 g/m*3 20 C 0 km/h
1198 31-05-2003 08:57:00 19.3 C 12.61 g/m*3 19.3 C 0 km/h
1199 31-05-2003 09:07:00 19.3 C 12.94 g/m*3 19.3 C 0 km/h
1200 31-05-2003 09:17:00 19.5 C 13.09 g/m*3 19.5 C 0 km/h
Sensor: Nr:Datum:Temp:Abs-Feuchte:Windchill:Wind:
Aussen-T/F 1201 31-05-2003 09:27:00 20 C 13.13 g/m*3 20 C 0 km/h
1202 31-05-2003 09:37:00 20.7 C 13.14 g/m*3 20.7 C 0 km/h
1203 31-05-2003 09:47:00 21.4 C 13.31 g/m*3 21.4 C 0 km/h
1204 31-05-2003 09:57:00 22.1 C 13.47 g/m*3 22.1 C 0 km/h
1205 31-05-2003 10:07:01 22.7 C 13.33 g/m*3 22.7 C 0 km/h
1206 31-05-2003 10:17:01 23.3 C 13.59 g/m*3 23.3 C 0 km/h
1207 31-05-2003 10:27:01 23.8 C 13.77 g/m*3 23.8 C 0 km/h
1208 31-05-2003 10:37:02 24.1 C 13.57 g/m*3 24.1 C 0 km/h
1209 31-05-2003 10:47:02 24.8 C 13.88 g/m*3 24.8 C 0 km/h
1210 31-05-2003 10:57:02 25.3 C 13.58 g/m*3 25.3 C 0 km/h
1211 31-05-2003 11:07:03 25.8 C 13.72 g/m*3 25.8 C 0 km/h
1212 31-05-2003 11:17:03 26 C 13.39 g/m*3 26 C 0 km/h
1213 31-05-2003 11:27:03 26.5 C 13.77 g/m*3 26.5 C 0 km/h
1214 31-05-2003 11:37:02 25.9 C 13.56 g/m*3 25.9 C 0 km/h
1215 31-05-2003 11:47:02 26.1 C 13.22 g/m*3 26.1 C 0 km/h
1216 31-05-2003 11:57:02 27.1 C 13.2 g/m*3 27.1 C 0 km/h
1217 31-05-2003 12:07:01 26.8 C 12.98 g/m*3 26.8 C 0 km/h
1218 31-05-2003 12:17:01 28.1 C 12.85 g/m*3 28.1 C 0 km/h
1219 31-05-2003 12:27:01 26.5 C 13.27 g/m*3 26.5 C 0 km/h
1220 31-05-2003 12:37:01 25.6 C 13.09 g/m*3 25.6 C 0 km/h
1221 31-05-2003 12:47:01 25.2 C 13.5 g/m*3 25.2 C 0 km/h
1222 31-05-2003 12:57:01 25.7 C 14.13 g/m*3 25.7 C 0 km/h
1223 31-05-2003 13:07:00 27.9 C 12.98 g/m*3 27.9 C 0 km/h
1224 31-05-2003 13:17:00 29.2 C 12.2 g/m*3 29.2 C 0 km/h
1225 31-05-2003 13:27:00 30.2 C 11.96 g/m*3 30.2 C 0 km/h
Sensor: Nr:Datum:Temp:Abs-Feuchte:Windchill:Wind:
Aussen-T/F 1226 31-05-2003 13:37:00 30.2 C 12.57 g/m*3 30.2 C 0 km/h
1227 31-05-2003 13:47:00 29.7 C 12.53 g/m*3 29.7 C 0 km/h
1228 31-05-2003 13:57:00 27.1 C 11.9 g/m*3 27.1 C 0 km/h
1229 31-05-2003 14:07:01 26.7 C 12.4 g/m*3 26.7 C 0 km/h
1230 31-05-2003 14:17:01 26.6 C 13.09 g/m*3 26.6 C 0 km/h
1231 31-05-2003 14:27:01 26.7 C 12.4 g/m*3 26.7 C 0 km/h
1232 31-05-2003 14:37:01 27.7 C 13.64 g/m*3 27.7 C 0 km/h
1233 31-05-2003 14:47:01 29.8 C 12.6 g/m*3 29.8 C 0 km/h
1234 31-05-2003 14:57:01 28.7 C 12.15 g/m*3 28.7 C 0 km/h
1235 31-05-2003 15:07:01 28 C 12.24 g/m*3 28 C 0 km/h
1236 31-05-2003 15:17:01 27.5 C 12.7 g/m*3 27.5 C 0 km/h
1237 31-05-2003 15:27:01 27.2 C 12.75 g/m*3 27.2 C 0 km/h
1238 31-05-2003 15:37:01 27.2 C 13.01 g/m*3 27.2 C 0 km/h
1239 31-05-2003 15:47:01 27.2 C 13.79 g/m*3 27.2 C 0 km/h
1240 31-05-2003 15:57:01 27 C 13.64 g/m*3 27 C 0 km/h
1241 31-05-2003 16:07:01 25.9 C 13.07 g/m*3 25.9 C 0 km/h
1242 31-05-2003 16:17:01 25.2 C 12.57 g/m*3 25.2 C 0 km/h
1243 31-05-2003 16:27:01 24.7 C 12.22 g/m*3 24.7 C 0 km/h
1244 31-05-2003 16:37:01 24.7 C 12.22 g/m*3 24.7 C 0 km/h
1245 31-05-2003 16:47:01 25.1 C 12.04 g/m*3 25.1 C 0 km/h
1246 31-05-2003 16:57:01 26.2 C 12.31 g/m*3 26.2 C 0 km/h
1247 31-05-2003 17:07:01 26.9 C 12.29 g/m*3 26.9 C 0 km/h
1248 31-05-2003 17:17:01 26.7 C 12.4 g/m*3 26.7 C 0 km/h
1249 31-05-2003 17:27:01 26.6 C 12.08 g/m*3 26.6 C 0 km/h
1250 31-05-2003 17:37:01 26.2 C 12.31 g/m*3 26.2 C 0 km/h
Sensor: Nr:Datum:Temp:Abs-Feuchte:Windchill:Wind:
Aussen-T/F 1251 31-05-2003 17:47:01 25.8 C 12.52 g/m*3 25.8 C 0 km/h
1252 31-05-2003 17:57:01 25.8 C 12.28 g/m*3 25.8 C 0 km/h
1253 31-05-2003 18:07:02 25.5 C 12.31 g/m*3 25.5 C 0 km/h
1254 31-05-2003 18:17:02 23.5 C 12.69 g/m*3 23.5 C 0 km/h
1255 31-05-2003 18:27:02 22.2 C 14.33 g/m*3 22.2 C 0 km/h
1256 31-05-2003 18:37:02 21.2 C 15.01 g/m*3 21.2 C 0 km/h
1257 31-05-2003 18:47:02 19.8 C 14.35 g/m*3 19.8 C 0 km/h
1258 31-05-2003 18:57:02 19.6 C 14.86 g/m*3 19.6 C 0 km/h
1259 31-05-2003 19:07:02 19.7 C 14.94 g/m*3 19.7 C 0 km/h
1260 31-05-2003 19:17:02 19.7 C 14.77 g/m*3 19.7 C 0 km/h
1261 31-05-2003 19:27:02 19.5 C 14.6 g/m*3 19.5 C 0 km/h
1262 31-05-2003 19:37:00 19.7 C 14.77 g/m*3 19.7 C 0 km/h
1263 31-05-2003 19:47:00 19.5 C 13.93 g/m*3 19.5 C 0 km/h
1264 31-05-2003 19:57:00 19.6 C 14.18 g/m*3 19.6 C 0 km/h
1265 31-05-2003 20:07:03 20.1 C 14.43 g/m*3 20.1 C 0 km/h
1266 31-05-2003 20:17:03 20.6 C 14.32 g/m*3 20.6 C 0 km/h
1267 31-05-2003 20:27:03 21 C 14.29 g/m*3 21 C 0 km/h
1268 31-05-2003 20:37:02 21.1 C 13.82 g/m*3 21.1 C 0 km/h
1269 31-05-2003 20:47:02 20.9 C 13.84 g/m*3 20.9 C 0 km/h
1270 31-05-2003 20:57:02 20.7 C 14.04 g/m*3 20.7 C 0 km/h
1271 31-05-2003 21:07:01 20.4 C 13.8 g/m*3 20.4 C 0 km/h
1272 31-05-2003 21:17:01 19.9 C 13.4 g/m*3 19.9 C 0 km/h
1273 31-05-2003 21:27:01 19.7 C 13.25 g/m*3 19.7 C 0 km/h
1274 31-05-2003 21:37:02 19.5 C 13.43 g/m*3 19.5 C 0 km/h
1275 31-05-2003 21:47:02 19.4 C 13.51 g/m*3 19.4 C 0 km/h
Sensor: Nr:Datum:Temp:Abs-Feuchte:Windchill:Wind:
Aussen-T/F 1276 31-05-2003 21:57:02 19.1 C 13.28 g/m*3 19.1 C 0 km/h
1277 31-05-2003 22:08:01 18.8 C 13.37 g/m*3 18.8 C 0 km/h
1278 31-05-2003 22:18:01 18.6 C 13.37 g/m*3 18.6 C 0 km/h
1279 31-05-2003 22:28:01 18.3 C 13.29 g/m*3 18.3 C 0 km/h
1280 31-05-2003 22:38:01 18.3 C 13.29 g/m*3 18.3 C 0 km/h
1281 31-05-2003 22:58:01 18.1 C 13.13 g/m*3 18.1 C 0 km/h
1282 31-05-2003 23:08:01 18.1 C 13.29 g/m*3 18.1 C 0 km/h
1283 31-05-2003 23:18:01 17.9 C 13.28 g/m*3 17.9 C 0 km/h
1284 31-05-2003 23:28:01 17.8 C 13.2 g/m*3 17.8 C 0 km/h
1285 31-05-2003 23:38:01 17.9 C 13.28 g/m*3 17.9 C 0 km/h
1286 31-05-2003 23:48:01 17.7 C 13.13 g/m*3 17.7 C 0 km/h
1287 31-05-2003 23:58:01 17.6 C 12.9 g/m*3 17.6 C 0 km/h
1288 01-06-2003 00:08:01 17.6 C 13.05 g/m*3 17.6 C 0 km/h
1289 01-06-2003 00:18:01 17.7 C 13.13 g/m*3 17.7 C 0 km/h
1290 01-06-2003 00:28:01 17.6 C 13.05 g/m*3 17.6 C 0 km/h
1291 01-06-2003 00:38:01 17.4 C 12.89 g/m*3 17.4 C 0 km/h
1292 01-06-2003 00:48:01 17.2 C 12.74 g/m*3 17.2 C 0 km/h
1293 01-06-2003 00:58:01 17.3 C 12.82 g/m*3 17.3 C 0 km/h
1294 01-06-2003 01:08:01 17.1 C 12.66 g/m*3 17.1 C 0 km/h
1295 01-06-2003 01:18:01 17 C 12.59 g/m*3 17 C 0 km/h
1296 01-06-2003 01:28:01 17 C 12.59 g/m*3 17 C 0 km/h
1297 01-06-2003 01:38:01 16.9 C 12.66 g/m*3 16.9 C 0 km/h
1298 01-06-2003 01:48:01 16.9 C 12.66 g/m*3 16.9 C 0 km/h
1299 01-06-2003 01:58:01 16.9 C 12.66 g/m*3 16.9 C 0 km/h
1300 01-06-2003 02:08:01 17.1 C 12.66 g/m*3 17.1 C 0 km/h
Sensor: Nr:Datum:Temp:Abs-Feuchte:Windchill:Wind:
Aussen-T/F 1301 01-06-2003 02:18:01 17.4 C 12.75 g/m*3 17.4 C 0 km/h
1302 01-06-2003 02:28:01 17.5 C 12.82 g/m*3 17.5 C 0 km/h
1303 01-06-2003 02:38:01 17.5 C 12.82 g/m*3 17.5 C 0 km/h
1304 01-06-2003 02:48:01 17.6 C 12.9 g/m*3 17.6 C 0 km/h
1305 01-06-2003 02:58:01 17.5 C 12.82 g/m*3 17.5 C 0 km/h
1306 01-06-2003 03:08:01 17.4 C 12.89 g/m*3 17.4 C 0 km/h
1307 01-06-2003 03:18:01 17.4 C 12.89 g/m*3 17.4 C 0 km/h
1308 01-06-2003 03:28:01 17.5 C 12.97 g/m*3 17.5 C 0 km/h
1309 01-06-2003 03:38:01 17.2 C 12.74 g/m*3 17.2 C 0 km/h
1310 01-06-2003 03:48:01 17.2 C 12.74 g/m*3 17.2 C 0 km/h
1311 01-06-2003 03:58:01 17.2 C 12.74 g/m*3 17.2 C 0 km/h
1312 01-06-2003 04:08:01 17.2 C 12.74 g/m*3 17.2 C 0 km/h
1313 01-06-2003 04:18:01 17.2 C 12.74 g/m*3 17.2 C 0 km/h
1314 01-06-2003 04:28:01 17.2 C 12.74 g/m*3 17.2 C 0 km/h
1315 01-06-2003 04:38:01 17.1 C 12.66 g/m*3 17.1 C 0 km/h
1316 01-06-2003 04:48:01 16.7 C 12.51 g/m*3 16.7 C 0 km/h
1317 01-06-2003 04:58:01 16.7 C 12.65 g/m*3 16.7 C 0 km/h
1318 01-06-2003 05:08:01 16.8 C 12.72 g/m*3 16.8 C 0 km/h
1319 01-06-2003 05:18:01 16.8 C 12.72 g/m*3 16.8 C 0 km/h
1320 01-06-2003 05:28:01 16.6 C 12.43 g/m*3 16.6 C 0 km/h
1321 01-06-2003 05:38:01 16.7 C 12.65 g/m*3 16.7 C 0 km/h
1322 01-06-2003 05:48:01 16.9 C 12.66 g/m*3 16.9 C 0 km/h
1323 01-06-2003 05:58:01 17 C 12.59 g/m*3 17 C 0 km/h
1324 01-06-2003 06:08:01 16.9 C 12.66 g/m*3 16.9 C 0 km/h
1325 01-06-2003 06:18:01 17 C 12.59 g/m*3 17 C 0 km/h
Sensor: Nr:Datum:Temp:Abs-Feuchte:Windchill:Wind:
Aussen-T/F 1326 01-06-2003 06:28:01 16.9 C 12.66 g/m*3 16.9 C 0 km/h
1327 01-06-2003 06:38:01 17.2 C 12.59 g/m*3 17.2 C 0 km/h
1328 01-06-2003 06:48:01 17.3 C 12.52 g/m*3 17.3 C 0 km/h
1329 01-06-2003 06:58:01 17.3 C 12.37 g/m*3 17.3 C 0 km/h
1330 01-06-2003 07:08:01 17.2 C 12.15 g/m*3 17.2 C 0 km/h
1331 01-06-2003 07:18:01 17.7 C 12.22 g/m*3 17.7 C 0 km/h
1332 01-06-2003 07:28:01 18 C 12.29 g/m*3 18 C 0 km/h
1333 01-06-2003 07:38:01 18 C 12.13 g/m*3 18 C 0 km/h
1334 01-06-2003 07:48:01 18.3 C 12.66 g/m*3 18.3 C 0 km/h
1335 01-06-2003 07:58:01 18.3 C 12.35 g/m*3 18.3 C 0 km/h
1336 01-06-2003 08:08:01 18.3 C 12.2 g/m*3 18.3 C 0 km/h
1337 01-06-2003 08:18:01 18.5 C 12.34 g/m*3 18.5 C 0 km/h
1338 01-06-2003 08:28:01 18.7 C 12.33 g/m*3 18.7 C 0 km/h
1339 01-06-2003 08:38:01 19 C 12.22 g/m*3 19 C 0 km/h
1340 01-06-2003 08:48:01 19.2 C 12.37 g/m*3 19.2 C 0 km/h
1341 01-06-2003 08:58:01 19.3 C 12.11 g/m*3 19.3 C 0 km/h
1342 01-06-2003 09:08:00 19.9 C 12.54 g/m*3 19.9 C 0 km/h
1343 01-06-2003 09:18:00 19.9 C 12.37 g/m*3 19.9 C 0 km/h
1344 01-06-2003 09:28:00 20.7 C 12.78 g/m*3 20.7 C 0 km/h
1345 01-06-2003 09:38:00 21.3 C 12.68 g/m*3 21.3 C 0 km/h
1346 01-06-2003 09:48:00 21.4 C 12.56 g/m*3 21.4 C 0 km/h
1347 01-06-2003 09:58:00 21.7 C 12.78 g/m*3 21.7 C 0 km/h
1348 01-06-2003 10:08:01 22 C 12.81 g/m*3 22 C 0 km/h
1349 01-06-2003 10:18:01 22.1 C 12.69 g/m*3 22.1 C 0 km/h
1350 01-06-2003 10:28:01 22.4 C 12.51 g/m*3 22.4 C 0 km/h
Sensor: Nr:Datum:Temp:Abs-Feuchte:Windchill:Wind:
Aussen-T/F 1351 01-06-2003 10:38:01 22.7 C 13.13 g/m*3 22.7 C 0 km/h
1352 01-06-2003 10:48:01 22.2 C 12.57 g/m*3 22.2 C 0 km/h
1353 01-06-2003 10:58:01 22.6 C 12.86 g/m*3 22.6 C 0 km/h
1354 01-06-2003 11:08:01 23.2 C 13.1 g/m*3 23.2 C 0 km/h
1355 01-06-2003 11:18:01 23.7 C 13.69 g/m*3 23.7 C 0 km/h
1356 01-06-2003 11:28:01 24.1 C 13.57 g/m*3 24.1 C 0 km/h
1357 01-06-2003 11:38:02 24.8 C 13.43 g/m*3 24.8 C 0 km/h
1358 01-06-2003 11:48:02 25.3 C 13.81 g/m*3 25.3 C 0 km/h
1359 01-06-2003 11:58:02 25.9 C 13.56 g/m*3 25.9 C 0 km/h
1360 01-06-2003 12:08:01 26.9 C 13.56 g/m*3 26.9 C 0 km/h
1361 01-06-2003 12:18:01 27 C 12.87 g/m*3 27 C 0 km/h
1362 01-06-2003 12:28:01 27.5 C 13.23 g/m*3 27.5 C 0 km/h
1363 01-06-2003 12:38:00 27.7 C 13.37 g/m*3 27.7 C 0 km/h
1364 01-06-2003 12:48:00 28.1 C 12.85 g/m*3 28.1 C 0 km/h
1365 01-06-2003 12:58:00 28.4 C 12.79 g/m*3 28.4 C 0 km/h
1366 01-06-2003 13:08:00 29.1 C 12.71 g/m*3 29.1 C 0 km/h
1367 01-06-2003 13:18:00 27.7 C 12.57 g/m*3 27.7 C 0 km/h
1368 01-06-2003 13:28:00 28.9 C 12.57 g/m*3 28.9 C 0 km/h
1369 01-06-2003 13:38:01 29.8 C 12.9 g/m*3 29.8 C 0 km/h
1370 01-06-2003 13:48:01 30.1 C 11.89 g/m*3 30.1 C 0 km/h
1371 01-06-2003 13:58:01 30.1 C 11.89 g/m*3 30.1 C 0 km/h
1372 01-06-2003 14:08:02 29.9 C 12.37 g/m*3 29.9 C 0 km/h
1373 01-06-2003 14:18:02 29.1 C 11.84 g/m*3 29.1 C 0 km/h
1374 01-06-2003 14:28:02 28.9 C 12.28 g/m*3 28.9 C 0 km/h
1375 01-06-2003 14:38:01 29.2 C 11.91 g/m*3 29.2 C 0 km/h
Sensor: Nr:Datum:Temp:Abs-Feuchte:Windchill:Wind:
Aussen-T/F 1376 01-06-2003 14:48:01 29.8 C 12.6 g/m*3 29.8 C 0 km/h
1377 01-06-2003 14:58:01 30.6 C 11.9 g/m*3 30.6 C 0 km/h
1378 01-06-2003 15:08:01 30.8 C 12.35 g/m*3 30.8 C 0 km/h
1379 01-06-2003 15:18:01 30.6 C 11.28 g/m*3 30.6 C 0 km/h
1380 01-06-2003 15:28:01 30.4 C 11.47 g/m*3 30.4 C 0 km/h
1381 01-06-2003 15:38:36 30.7 C 12.28 g/m*3 30.7 C 0 km/h
1382 01-06-2003 15:48:36 31.2 C 11.97 g/m*3 31.2 C 0 km/h
1383 01-06-2003 15:58:36 30.8 C 12.03 g/m*3 30.8 C 0 km/h
1384 01-06-2003 16:08:01 30.6 C 11.9 g/m*3 30.6 C 0 km/h
1385 01-06-2003 16:18:01 30.7 C 12.6 g/m*3 30.7 C 0 km/h
1386 01-06-2003 16:28:01 30.5 C 13.08 g/m*3 30.5 C 0 km/h
1387 01-06-2003 16:38:01 30.7 C 13.23 g/m*3 30.7 C 0 km/h
1388 01-06-2003 16:48:01 30.8 C 12.66 g/m*3 30.8 C 0 km/h
1389 01-06-2003 16:58:01 30.9 C 13.37 g/m*3 30.9 C 0 km/h
1390 01-06-2003 17:08:01 30.6 C 12.84 g/m*3 30.6 C 0 km/h
1391 01-06-2003 17:18:01 30.6 C 12.84 g/m*3 30.6 C 0 km/h
1392 01-06-2003 17:28:01 30.8 C 12.35 g/m*3 30.8 C 0 km/h
1393 01-06-2003 17:38:00 31.1 C 12.55 g/m*3 31.1 C 0 km/h
1394 01-06-2003 17:48:00 31.1 C 11.9 g/m*3 31.1 C 0 km/h
1395 01-06-2003 17:58:00 31.2 C 11.97 g/m*3 31.2 C 0 km/h
1396 01-06-2003 18:18:01 31.3 C 11.71 g/m*3 31.3 C 0 km/h
1397 01-06-2003 18:28:01 31.2 C 10.67 g/m*3 31.2 C 0 km/h
1398 01-06-2003 18:38:00 31.3 C 11.06 g/m*3 31.3 C 0 km/h
1399 01-06-2003 18:48:00 31.2 C 11.32 g/m*3 31.2 C 0 km/h
1400 01-06-2003 18:58:00 31.2 C 11.32 g/m*3 31.2 C 0 km/h
Sensor: Nr:Datum:Temp:Abs-Feuchte:Windchill:Wind:
Aussen-T/F 1401 01-06-2003 19:08:00 31.2 C 11 g/m*3 31.2 C 0 km/h
1402 01-06-2003 19:18:00 31 C 11.2 g/m*3 31 C 0 km/h
1403 01-06-2003 19:28:00 30.9 C 11.78 g/m*3 30.9 C 0 km/h
1404 01-06-2003 19:38:02 30.7 C 11.02 g/m*3 30.7 C 0 km/h
1405 01-06-2003 19:48:02 30.6 C 11.9 g/m*3 30.6 C 0 km/h
1406 01-06-2003 19:58:02 30.3 C 11.71 g/m*3 30.3 C 0 km/h
1407 01-06-2003 20:08:01 30.1 C 12.5 g/m*3 30.1 C 0 km/h
1408 01-06-2003 20:18:01 29.5 C 12.69 g/m*3 29.5 C 0 km/h
1409 01-06-2003 20:28:01 29 C 12.35 g/m*3 29 C 0 km/h
1410 01-06-2003 20:38:01 28 C 12.24 g/m*3 28 C 0 km/h
1411 01-06-2003 20:48:01 27.3 C 12.3 g/m*3 27.3 C 0 km/h
1412 01-06-2003 20:58:01 25.8 C 12.28 g/m*3 25.8 C 0 km/h
1413 01-06-2003 21:08:01 25.1 C 12.04 g/m*3 25.1 C 0 km/h
1414 01-06-2003 21:18:01 24.5 C 11.86 g/m*3 24.5 C 0 km/h
1415 01-06-2003 21:28:01 24.1 C 12.25 g/m*3 24.1 C 0 km/h
1416 01-06-2003 21:39:01 23.8 C 12.26 g/m*3 23.8 C 0 km/h
1417 01-06-2003 21:49:01 23.5 C 12.27 g/m*3 23.5 C 0 km/h
1418 01-06-2003 21:59:01 23.2 C 12.47 g/m*3 23.2 C 0 km/h
1419 01-06-2003 22:09:01 23.2 C 12.27 g/m*3 23.2 C 0 km/h
1420 01-06-2003 22:19:01 22.9 C 12.47 g/m*3 22.9 C 0 km/h
1421 01-06-2003 22:29:01 22.8 C 12.6 g/m*3 22.8 C 0 km/h
1422 01-06-2003 22:39:01 22.6 C 12.46 g/m*3 22.6 C 0 km/h
1423 01-06-2003 22:49:01 22.3 C 12.44 g/m*3 22.3 C 0 km/h
1424 01-06-2003 22:59:01 22.1 C 12.3 g/m*3 22.1 C 0 km/h
1425 01-06-2003 23:09:01 22 C 12.42 g/m*3 22 C 0 km/h
Sensor: Nr:Datum:Temp:Abs-Feuchte:Windchill:Wind:
Aussen-T/F 1426 01-06-2003 23:19:01 21.7 C 12.4 g/m*3 21.7 C 0 km/h
1427 01-06-2003 23:29:01 21.6 C 12.52 g/m*3 21.6 C 0 km/h
1428 01-06-2003 23:39:01 21.3 C 12.49 g/m*3 21.3 C 0 km/h
1429 01-06-2003 23:49:01 21.1 C 12.34 g/m*3 21.1 C 0 km/h
1430 01-06-2003 23:59:01 21 C 12.46 g/m*3 21 C 0 km/h
1431 02-06-2003 00:09:01 20.8 C 12.49 g/m*3 20.8 C 0 km/h
1432 02-06-2003 00:19:01 20.5 C 12.46 g/m*3 20.5 C 0 km/h
1433 02-06-2003 00:29:01 20.4 C 12.38 g/m*3 20.4 C 0 km/h
1434 02-06-2003 00:39:01 20.2 C 12.24 g/m*3 20.2 C 0 km/h
1435 02-06-2003 00:49:01 20 C 12.27 g/m*3 20 C 0 km/h
1436 02-06-2003 00:59:01 19.8 C 12.3 g/m*3 19.8 C 0 km/h
1437 02-06-2003 01:09:01 19.7 C 12.4 g/m*3 19.7 C 0 km/h
1438 02-06-2003 01:19:01 19.6 C 12.32 g/m*3 19.6 C 0 km/h
1439 02-06-2003 01:29:01 19.4 C 12.18 g/m*3 19.4 C 0 km/h
1440 02-06-2003 01:39:01 19.3 C 12.27 g/m*3 19.3 C 0 km/h
1441 02-06-2003 01:49:01 19.1 C 11.97 g/m*3 19.1 C 0 km/h
1442 02-06-2003 01:59:01 18.9 C 11.99 g/m*3 18.9 C 0 km/h
1443 02-06-2003 02:09:01 18.9 C 11.99 g/m*3 18.9 C 0 km/h
1444 02-06-2003 02:19:01 19.1 C 11.97 g/m*3 19.1 C 0 km/h
1445 02-06-2003 02:29:01 18.7 C 12.01 g/m*3 18.7 C 0 km/h
1446 02-06-2003 02:39:01 18.5 C 12.02 g/m*3 18.5 C 0 km/h
1447 02-06-2003 02:49:01 18.5 C 12.18 g/m*3 18.5 C 0 km/h
1448 02-06-2003 02:59:01 18.2 C 12.12 g/m*3 18.2 C 0 km/h
1449 02-06-2003 03:09:01 18.1 C 11.9 g/m*3 18.1 C 0 km/h
1450 02-06-2003 03:19:01 17.8 C 11.99 g/m*3 17.8 C 0 km/h
Sensor: Nr:Datum:Temp:Abs-Feuchte:Windchill:Wind:
Aussen-T/F 1451 02-06-2003 03:29:01 17.8 C 11.99 g/m*3 17.8 C 0 km/h
1452 02-06-2003 03:39:01 17.8 C 11.99 g/m*3 17.8 C 0 km/h
1453 02-06-2003 03:49:01 17.7 C 11.92 g/m*3 17.7 C 0 km/h
1454 02-06-2003 03:59:01 17.7 C 12.07 g/m*3 17.7 C 0 km/h
1455 02-06-2003 04:09:01 17.5 C 11.93 g/m*3 17.5 C 0 km/h
1456 02-06-2003 04:19:01 17.4 C 12 g/m*3 17.4 C 0 km/h
1457 02-06-2003 04:29:01 17.5 C 11.93 g/m*3 17.5 C 0 km/h
1458 02-06-2003 04:39:01 17.3 C 11.93 g/m*3 17.3 C 0 km/h
1459 02-06-2003 04:49:01 17.4 C 12 g/m*3 17.4 C 0 km/h
1460 02-06-2003 04:59:01 17.2 C 11.86 g/m*3 17.2 C 0 km/h
1461 02-06-2003 05:09:01 17 C 11.72 g/m*3 17 C 0 km/h
1462 02-06-2003 05:19:01 17 C 11.87 g/m*3 17 C 0 km/h
1463 02-06-2003 05:29:01 16.8 C 11.72 g/m*3 16.8 C 0 km/h
1464 02-06-2003 05:39:01 16.7 C 11.8 g/m*3 16.7 C 0 km/h
1465 02-06-2003 05:49:01 16.6 C 11.72 g/m*3 16.6 C 0 km/h
1466 02-06-2003 05:59:01 16.7 C 11.8 g/m*3 16.7 C 0 km/h
1467 02-06-2003 06:09:01 16.7 C 11.8 g/m*3 16.7 C 0 km/h
1468 02-06-2003 06:19:01 16.7 C 11.8 g/m*3 16.7 C 0 km/h
1469 02-06-2003 06:29:01 16.8 C 11.87 g/m*3 16.8 C 0 km/h
1470 02-06-2003 06:39:01 17 C 11.87 g/m*3 17 C 0 km/h
1471 02-06-2003 06:49:01 17 C 11.87 g/m*3 17 C 0 km/h
1472 02-06-2003 06:59:01 17.1 C 11.94 g/m*3 17.1 C 0 km/h
1473 02-06-2003 07:09:01 17.4 C 12.15 g/m*3 17.4 C 0 km/h
1474 02-06-2003 07:19:01 17.7 C 12.07 g/m*3 17.7 C 0 km/h
1475 02-06-2003 07:29:01 17.9 C 12.21 g/m*3 17.9 C 0 km/h
Sensor: Nr:Datum:Temp:Abs-Feuchte:Windchill:Wind:
Aussen-T/F 1476 02-06-2003 07:39:01 18 C 11.98 g/m*3 18 C 0 km/h
1477 02-06-2003 07:49:01 18.1 C 12.21 g/m*3 18.1 C 0 km/h
1478 02-06-2003 07:59:01 18.4 C 11.95 g/m*3 18.4 C 0 km/h
1479 02-06-2003 08:09:01 18.5 C 12.18 g/m*3 18.5 C 0 km/h
1480 02-06-2003 08:19:01 18.7 C 12.33 g/m*3 18.7 C 0 km/h
1481 02-06-2003 08:29:01 19.1 C 12.29 g/m*3 19.1 C 0 km/h
1482 02-06-2003 08:39:01 19.5 C 12.42 g/m*3 19.5 C 0 km/h
1483 02-06-2003 08:49:01 20 C 12.44 g/m*3 20 C 0 km/h
1484 02-06-2003 08:59:01 20.4 C 12.74 g/m*3 20.4 C 0 km/h
1485 02-06-2003 09:09:01 20.8 C 12.67 g/m*3 20.8 C 0 km/h
1486 02-06-2003 09:19:01 21.5 C 13.01 g/m*3 21.5 C 0 km/h
1487 02-06-2003 09:29:01 22.2 C 12.76 g/m*3 22.2 C 0 km/h
1488 02-06-2003 09:39:01 23 C 12.95 g/m*3 23 C 0 km/h
1489 02-06-2003 09:49:01 23.5 C 13.32 g/m*3 23.5 C 0 km/h
1490 02-06-2003 09:59:01 24 C 12.84 g/m*3 24 C 0 km/h
1491 02-06-2003 10:09:01 24.7 C 12.45 g/m*3 24.7 C 0 km/h
1492 02-06-2003 10:19:01 25.2 C 12.8 g/m*3 25.2 C 0 km/h
1493 02-06-2003 10:29:01 25.4 C 13.18 g/m*3 25.4 C 0 km/h
1494 02-06-2003 10:39:02 26 C 12.66 g/m*3 26 C 0 km/h
1495 02-06-2003 10:49:02 26.4 C 12.2 g/m*3 26.4 C 0 km/h
1496 02-06-2003 10:59:02 26.7 C 12.15 g/m*3 26.7 C 0 km/h
1497 02-06-2003 11:09:01 26.9 C 12.8 g/m*3 26.9 C 0 km/h
1498 02-06-2003 11:19:01 27.1 C 12.42 g/m*3 27.1 C 0 km/h
1499 02-06-2003 11:29:01 27.3 C 12.56 g/m*3 27.3 C 0 km/h
1500 02-06-2003 11:39:03 27.3 C 12.3 g/m*3 27.3 C 0 km/h
Sensor: Nr:Datum:Temp:Abs-Feuchte:Windchill:Wind:
Aussen-T/F 1501 02-06-2003 11:49:03 28.8 C 12.22 g/m*3 28.8 C 0 km/h
1502 02-06-2003 11:59:03 27.9 C 11.9 g/m*3 27.9 C 0 km/h
1503 02-06-2003 12:09:02 27.8 C 12.37 g/m*3 27.8 C 0 km/h
1504 02-06-2003 12:19:02 27.4 C 12.63 g/m*3 27.4 C 0 km/h
1505 02-06-2003 12:29:02 27.9 C 12.98 g/m*3 27.9 C 0 km/h
1506 02-06-2003 12:39:00 27.6 C 13.3 g/m*3 27.6 C 0 km/h
1507 02-06-2003 12:49:00 28 C 11.69 g/m*3 28 C 0 km/h
1508 02-06-2003 12:59:00 27.9 C 12.44 g/m*3 27.9 C 0 km/h
1509 02-06-2003 13:09:00 28.7 C 12.15 g/m*3 28.7 C 0 km/h
1510 02-06-2003 13:19:00 29.5 C 11.22 g/m*3 29.5 C 0 km/h
1511 02-06-2003 13:29:00 29.6 C 10.98 g/m*3 29.6 C 0 km/h
1512 02-06-2003 13:39:01 29.1 C 10.97 g/m*3 29.1 C 0 km/h
1513 02-06-2003 13:49:01 29.2 C 10.74 g/m*3 29.2 C 0 km/h
1514 02-06-2003 13:59:01 29.1 C 11.26 g/m*3 29.1 C 0 km/h
1515 02-06-2003 14:09:01 28.4 C 11.67 g/m*3 28.4 C 0 km/h
1516 02-06-2003 14:19:01 29.1 C 11.55 g/m*3 29.1 C 0 km/h
1517 02-06-2003 14:29:01 29.6 C 11.57 g/m*3 29.6 C 0 km/h
1518 02-06-2003 14:39:01 29.5 C 11.81 g/m*3 29.5 C 0 km/h
1519 02-06-2003 14:49:01 29.5 C 11.22 g/m*3 29.5 C 0 km/h
1520 02-06-2003 14:59:01 30 C 11.22 g/m*3 30 C 0 km/h
1521 02-06-2003 15:09:02 29.9 C 10.86 g/m*3 29.9 C 0 km/h
1522 02-06-2003 15:19:02 30.2 C 10.73 g/m*3 30.2 C 0 km/h
1523 02-06-2003 15:29:02 30 C 10.61 g/m*3 30 C 0 km/h
1524 02-06-2003 15:39:01 30.3 C 10.79 g/m*3 30.3 C 0 km/h
1525 02-06-2003 15:49:01 30.4 C 10.54 g/m*3 30.4 C 0 km/h
Sensor: Nr:Datum:Temp:Abs-Feuchte:Windchill:Wind:
Aussen-T/F 1526 02-06-2003 15:59:01 30.5 C 10.59 g/m*3 30.5 C 0 km/h
1527 02-06-2003 16:09:01 30.4 C 10.54 g/m*3 30.4 C 0 km/h
1528 02-06-2003 16:19:01 30.5 C 10.59 g/m*3 30.5 C 0 km/h
1529 02-06-2003 16:29:01 30.6 C 10.02 g/m*3 30.6 C 0 km/h
1530 02-06-2003 16:39:01 30.4 C 10.54 g/m*3 30.4 C 0 km/h
1531 02-06-2003 16:49:01 30.1 C 10.67 g/m*3 30.1 C 0 km/h
1532 02-06-2003 16:59:01 30.4 C 10.85 g/m*3 30.4 C 0 km/h
1533 02-06-2003 17:09:00 30.4 C 11.16 g/m*3 30.4 C 0 km/h
1534 02-06-2003 17:19:00 30.5 C 11.53 g/m*3 30.5 C 0 km/h
1535 02-06-2003 17:39:01 28.3 C 11.61 g/m*3 28.3 C 0 km/h
1536 02-06-2003 17:49:01 28.3 C 11.61 g/m*3 28.3 C 0 km/h
1537 02-06-2003 17:59:01 28.7 C 11.59 g/m*3 28.7 C 0 km/h
1538 02-06-2003 18:09:02 29.3 C 10.51 g/m*3 29.3 C 0 km/h
1539 02-06-2003 18:19:02 29.3 C 10.8 g/m*3 29.3 C 0 km/h
1540 02-06-2003 18:29:02 28.9 C 11.14 g/m*3 28.9 C 0 km/h
1541 02-06-2003 18:39:01 28.2 C 11.55 g/m*3 28.2 C 0 km/h
1542 02-06-2003 18:49:01 28.1 C 11.76 g/m*3 28.1 C 0 km/h
1543 02-06-2003 18:59:01 27.4 C 11.84 g/m*3 27.4 C 0 km/h
1544 02-06-2003 19:09:02 27.1 C 11.65 g/m*3 27.1 C 0 km/h
1545 02-06-2003 19:19:02 27 C 11.58 g/m*3 27 C 0 km/h
1546 02-06-2003 19:29:02 25.6 C 14.52 g/m*3 25.6 C 0 km/h
1547 02-06-2003 19:39:01 26.7 C 14.17 g/m*3 26.7 C 0 km/h
1548 02-06-2003 19:49:01 27.5 C 13.23 g/m*3 27.5 C 0 km/h
1549 02-06-2003 19:59:01 27.7 C 12.04 g/m*3 27.7 C 0 km/h
1550 02-06-2003 20:09:01 27.9 C 12.17 g/m*3 27.9 C 0 km/h
Sensor: Nr:Datum:Temp:Abs-Feuchte:Windchill:Wind:
Aussen-T/F 1551 02-06-2003 20:19:01 27.5 C 11.38 g/m*3 27.5 C 0 km/h
1552 02-06-2003 20:29:01 26.3 C 11.64 g/m*3 26.3 C 0 km/h
1553 02-06-2003 20:39:01 25.6 C 11.9 g/m*3 25.6 C 0 km/h
1554 02-06-2003 20:49:01 24.8 C 12.06 g/m*3 24.8 C 0 km/h
1555 02-06-2003 20:59:01 24.5 C 11.86 g/m*3 24.5 C 0 km/h
1556 02-06-2003 21:09:01 24.3 C 12.17 g/m*3 24.3 C 0 km/h
1557 02-06-2003 21:19:01 24 C 12.18 g/m*3 24 C 0 km/h
1558 02-06-2003 21:29:01 23.6 C 12.34 g/m*3 23.6 C 0 km/h
1559 02-06-2003 21:39:01 23.6 C 12.55 g/m*3 23.6 C 0 km/h
1560 02-06-2003 21:49:01 23.3 C 12.13 g/m*3 23.3 C 0 km/h
1561 02-06-2003 21:59:01 23.2 C 11.85 g/m*3 23.2 C 0 km/h
1562 02-06-2003 22:10:00 23.1 C 11.78 g/m*3 23.1 C 0 km/h
1563 02-06-2003 22:20:00 23 C 11.72 g/m*3 23 C 0 km/h
1564 02-06-2003 22:30:00 22.9 C 11.65 g/m*3 22.9 C 0 km/h
1565 02-06-2003 22:40:00 22.7 C 11.72 g/m*3 22.7 C 0 km/h
1566 02-06-2003 22:50:00 22.6 C 11.85 g/m*3 22.6 C 0 km/h
1567 02-06-2003 23:00:00 22.5 C 11.98 g/m*3 22.5 C 0 km/h
1568 02-06-2003 23:10:00 22.3 C 12.05 g/m*3 22.3 C 0 km/h
1569 02-06-2003 23:20:00 22.2 C 11.98 g/m*3 22.2 C 0 km/h
1570 02-06-2003 23:30:00 22.1 C 12.1 g/m*3 22.1 C 0 km/h
1571 02-06-2003 23:40:00 21.8 C 12.28 g/m*3 21.8 C 0 km/h
1572 02-06-2003 23:50:00 21.8 C 12.28 g/m*3 21.8 C 0 km/h

Legende:
   Min
   Max


Maximal/Minimal-Werte vom 23.05.2003 - 02.06.2003

Sensor Min Max Avg
Temp
(Aussen-T/F)
12.3 °C
26-05-2003  05:12:01
33.3 °C
30-05-2003  16:26:01
20.63 °C
Abs-Feuchte
(Aussen-T/F)
5.47 g/m*3
23-05-2003  18:39:02
15.01 g/m*3
31-05-2003  18:37:02
10.12 g/m*3
Windchill
(Aussen-T/F)
12.3 C
26-05-2003  05:12:01
33.3 C
30-05-2003  16:26:01
20.62 C

Die Daten stammen von einer Davis Vantage Pro 2 Wetter-Station und werden unter Linux mit der Software wview2wettercgi und aufbereitet. Alle Angaben erfolgen ohne Gewähr für ihre Vollständigkeit oder Richtigkeit.
Kontakt: Rainer Krienke krienke@uni-koblenz.de . Meine Webseiten an der Uni Koblenz oder privat.
Version: $Revision: 0.78 $